Time,TemperatureF,DewpointF,PressureIn,WindDirection,WindDirectionDegrees,WindSpeedMPH,WindSpeedGustMPH,Humidity,HourlyPrecipIn,Conditions,Clouds,dailyrainin,SoftwareType,DateUTC
2013-07-16 00:00:00,62.6,48.2,29.91,NW,315,15.0,22.4,59,0.00,,,0.00,WUHU216HW,2013-07-16 06:00:00,
2013-07-16 00:01:00,62.5,48.0,29.91,NW,315,17.4,22.4,59,0.00,,,0.00,WUHU216HW,2013-07-16 06:01:00,
2013-07-16 00:05:00,62.3,47.8,29.91,North,0,17.2,21.7,59,0.00,,,0.00,WUHU216HW,2013-07-16 06:05:00,
2013-07-16 00:06:00,62.3,47.8,29.92,NW,315,19.7,21.7,59,0.00,,,0.00,WUHU216HW,2013-07-16 06:06:00,
2013-07-16 00:10:00,62.1,48.2,29.92,NW,315,18.3,21.7,60,0.00,,,0.00,WUHU216HW,2013-07-16 06:10:00,
2013-07-16 00:11:00,61.9,48.0,29.92,NW,315,20.6,25.3,60,0.00,,,0.00,WUHU216HW,2013-07-16 06:11:00,
2013-07-16 00:15:00,61.9,48.0,29.92,NNW,338,20.8,25.3,60,0.00,,,0.00,WUHU216HW,2013-07-16 06:15:00,
2013-07-16 00:16:00,61.9,48.0,29.92,NW,315,17.7,25.3,60,0.00,,,0.00,WUHU216HW,2013-07-16 06:16:00,
2013-07-16 00:20:00,61.7,47.8,29.92,NNW,338,19.2,25.3,60,0.00,,,0.00,WUHU216HW,2013-07-16 06:20:00,
2013-07-16 00:21:00,61.7,47.8,29.92,NW,315,14.3,23.3,60,0.00,,,0.00,WUHU216HW,2013-07-16 06:21:00,
2013-07-16 00:25:00,61.6,48.1,29.92,NW,315,17.9,21.5,61,0.00,,,0.00,WUHU216HW,2013-07-16 06:25:00,
2013-07-16 00:26:00,61.6,48.1,29.92,NW,315,17.9,21.5,61,0.00,,,0.00,WUHU216HW,2013-07-16 06:26:00,
2013-07-16 00:31:00,61.4,47.9,29.93,NNW,338,14.3,24.2,61,0.00,,,0.00,WUHU216HW,2013-07-16 06:31:00,
2013-07-16 00:32:00,61.4,47.9,29.92,NW,315,14.3,24.2,61,0.00,,,0.00,WUHU216HW,2013-07-16 06:32:00,
2013-07-16 00:36:00,61.2,47.7,29.93,NNW,338,22.4,24.2,61,0.00,,,0.00,WUHU216HW,2013-07-16 06:36:00,
2013-07-16 00:37:00,61.2,47.7,29.93,NW,315,15.7,24.2,61,0.00,,,0.00,WUHU216HW,2013-07-16 06:37:00,
2013-07-16 00:41:00,61.0,47.5,29.93,NW,315,15.9,22.4,61,0.00,,,0.00,WUHU216HW,2013-07-16 06:41:00,
2013-07-16 00:42:00,61.0,47.5,29.93,NNW,338,18.3,22.4,61,0.00,,,0.00,WUHU216HW,2013-07-16 06:42:00,
2013-07-16 00:46:00,60.8,47.8,29.93,NNW,338,19.2,21.7,62,0.00,,,0.00,WUHU216HW,2013-07-16 06:46:00,
2013-07-16 00:47:00,60.8,47.8,29.93,NNW,338,20.8,21.7,62,0.00,,,0.00,WUHU216HW,2013-07-16 06:47:00,
2013-07-16 00:51:00,60.8,47.8,29.93,NW,315,22.1,22.1,62,0.00,,,0.00,WUHU216HW,2013-07-16 06:51:00,
2013-07-16 00:52:00,60.8,47.8,29.93,NW,315,19.2,22.1,62,0.00,,,0.00,WUHU216HW,2013-07-16 06:52:00,
2013-07-16 00:56:00,60.5,47.4,29.93,NW,315,17.2,22.1,62,0.00,,,0.00,WUHU216HW,2013-07-16 06:56:00,
2013-07-16 00:57:00,60.5,47.4,29.93,NNW,338,20.8,22.1,62,0.00,,,0.00,WUHU216HW,2013-07-16 06:57:00,
2013-07-16 00:58:00,60.5,47.4,29.93,NW,315,19.7,22.1,62,0.00,,,0.00,WUHU216HW,2013-07-16 06:58:00,
2013-07-16 01:01:00,60.3,47.7,29.94,NNW,338,14.5,20.8,63,0.00,,,0.00,WUHU216HW,2013-07-16 07:01:00,
2013-07-16 01:02:00,60.3,47.7,29.94,NNW,338,15.4,20.8,63,0.00,,,0.00,WUHU216HW,2013-07-16 07:02:00,
2013-07-16 01:03:00,60.3,47.7,29.94,NNW,338,10.5,20.8,63,0.00,,,0.00,WUHU216HW,2013-07-16 07:03:00,
2013-07-16 01:06:00,60.1,47.5,29.94,NW,315,14.3,20.8,63,0.00,,,0.00,WUHU216HW,2013-07-16 07:06:00,
2013-07-16 01:07:00,60.1,47.5,29.93,NW,315,22.6,22.6,63,0.00,,,0.00,WUHU216HW,2013-07-16 07:07:00,
2013-07-16 01:08:00,60.1,47.5,29.93,NW,315,20.6,22.6,63,0.00,,,0.00,WUHU216HW,2013-07-16 07:08:00,
2013-07-16 01:11:00,60.1,47.5,29.94,NNW,338,13.0,22.6,63,0.00,,,0.00,WUHU216HW,2013-07-16 07:11:00,
2013-07-16 01:12:00,60.1,47.5,29.94,NW,315,13.0,22.6,63,0.00,,,0.00,WUHU216HW,2013-07-16 07:12:00,
2013-07-16 01:14:00,60.1,47.5,29.94,NNW,338,11.4,22.6,63,0.00,,,0.00,WUHU216HW,2013-07-16 07:14:00,
2013-07-16 01:17:00,60.1,47.1,29.94,NW,315,18.3,22.6,62,0.00,,,0.00,WUHU216HW,2013-07-16 07:17:00,
2013-07-16 01:18:00,60.1,47.5,29.94,NW,315,20.6,20.6,63,0.00,,,0.00,WUHU216HW,2013-07-16 07:18:00,
2013-07-16 01:19:00,60.1,47.5,29.93,NW,315,17.9,20.6,63,0.00,,,0.00,WUHU216HW,2013-07-16 07:19:00,
2013-07-16 01:22:00,60.1,47.5,29.93,NW,315,19.2,20.6,63,0.00,,,0.00,WUHU216HW,2013-07-16 07:22:00,
2013-07-16 01:23:00,60.1,47.5,29.93,NW,315,19.0,20.6,63,0.00,,,0.00,WUHU216HW,2013-07-16 07:23:00,
2013-07-16 01:24:00,60.3,47.7,29.93,NW,315,22.4,22.4,63,0.00,,,0.00,WUHU216HW,2013-07-16 07:24:00,
2013-07-16 01:27:00,60.1,47.1,29.93,NW,315,16.3,22.4,62,0.00,,,0.00,WUHU216HW,2013-07-16 07:27:00,
2013-07-16 01:28:00,60.1,47.1,29.93,NW,315,19.2,22.4,62,0.00,,,0.00,WUHU216HW,2013-07-16 07:28:00,
2013-07-16 01:29:00,60.1,47.1,29.93,NW,315,19.2,22.4,62,0.00,,,0.00,WUHU216HW,2013-07-16 07:29:00,
2013-07-16 01:32:00,59.9,46.9,29.93,NW,315,17.7,22.4,62,0.00,,,0.00,WUHU216HW,2013-07-16 07:32:00,
2013-07-16 01:33:00,59.9,46.9,29.93,WNW,293,20.1,22.4,62,0.00,,,0.00,WUHU216HW,2013-07-16 07:33:00,
2013-07-16 01:34:00,59.9,46.9,29.93,NW,315,19.2,21.7,62,0.00,,,0.00,WUHU216HW,2013-07-16 07:34:00,
2013-07-16 01:35:00,59.9,46.9,29.93,NW,315,19.2,21.7,62,0.00,,,0.00,WUHU216HW,2013-07-16 07:35:00,
2013-07-16 01:37:00,59.8,46.7,29.93,NW,315,20.6,21.7,62,0.00,,,0.00,WUHU216HW,2013-07-16 07:37:00,
2013-07-16 01:38:00,59.9,46.9,29.93,WNW,293,21.3,21.7,62,0.00,,,0.00,WUHU216HW,2013-07-16 07:38:00,
2013-07-16 01:39:00,59.9,46.9,29.93,NW,315,20.4,21.3,62,0.00,,,0.00,WUHU216HW,2013-07-16 07:39:00,
2013-07-16 01:40:00,60.1,47.1,29.93,WNW,293,15.7,21.3,62,0.00,,,0.00,WUHU216HW,2013-07-16 07:40:00,
2013-07-16 01:43:00,60.1,47.1,29.94,NW,315,13.4,21.3,62,0.00,,,0.00,WUHU216HW,2013-07-16 07:43:00,
2013-07-16 01:45:00,59.9,46.9,29.94,NW,315,16.1,21.3,62,0.00,,,0.00,WUHU216HW,2013-07-16 07:45:00,
2013-07-16 01:48:00,59.9,46.9,29.94,WNW,293,15.7,21.3,62,0.00,,,0.00,WUHU216HW,2013-07-16 07:48:00,
2013-07-16 01:49:00,59.9,46.9,29.94,NW,315,17.9,21.3,62,0.00,,,0.00,WUHU216HW,2013-07-16 07:49:00,
2013-07-16 01:50:00,59.9,46.9,29.94,NW,315,17.2,21.3,62,0.00,,,0.00,WUHU216HW,2013-07-16 07:50:00,
2013-07-16 01:53:00,59.9,46.9,29.94,NNW,338,14.1,21.3,62,0.00,,,0.00,WUHU216HW,2013-07-16 07:53:00,
2013-07-16 01:54:00,59.9,46.9,29.94,NW,315,12.8,21.3,62,0.00,,,0.00,WUHU216HW,2013-07-16 07:54:00,
2013-07-16 01:55:00,59.9,46.9,29.94,NW,315,16.8,21.3,62,0.00,,,0.00,WUHU216HW,2013-07-16 07:55:00,
2013-07-16 01:58:00,59.6,46.5,29.94,NNW,338,12.8,19.9,62,0.00,,,0.00,WUHU216HW,2013-07-16 07:58:00,
2013-07-16 01:59:00,59.6,46.5,29.94,NW,315,15.0,19.2,62,0.00,,,0.00,WUHU216HW,2013-07-16 07:59:00,
2013-07-16 02:00:00,59.4,46.4,29.94,NW,315,15.2,19.2,62,0.00,,,0.00,WUHU216HW,2013-07-16 08:00:00,
2013-07-16 02:04:00,59.0,46.5,29.94,NW,315,21.5,21.5,63,0.00,,,0.00,WUHU216HW,2013-07-16 08:04:00,
2013-07-16 02:05:00,59.0,46.5,29.94,NW,315,18.3,21.5,63,0.00,,,0.00,WUHU216HW,2013-07-16 08:05:00,
2013-07-16 02:10:00,58.7,46.1,29.93,WNW,293,17.7,21.5,63,0.00,,,0.00,WUHU216HW,2013-07-16 08:10:00,
2013-07-16 02:15:00,58.7,46.1,29.93,NNW,338,15.9,21.5,63,0.00,,,0.00,WUHU216HW,2013-07-16 08:15:00,
2013-07-16 02:16:00,58.7,46.1,29.93,NNW,338,16.3,21.5,63,0.00,,,0.00,WUHU216HW,2013-07-16 08:16:00,
2013-07-16 02:20:00,58.3,46.2,29.93,NNW,338,18.3,19.9,64,0.00,,,0.00,WUHU216HW,2013-07-16 08:20:00,
2013-07-16 02:21:00,58.1,46.0,29.94,NNW,338,15.7,21.0,64,0.00,,,0.00,WUHU216HW,2013-07-16 08:21:00,
2013-07-16 02:25:00,58.0,45.8,29.94,NNW,338,19.5,21.0,64,0.00,,,0.00,WUHU216HW,2013-07-16 08:25:00,
2013-07-16 02:26:00,58.0,45.8,29.93,NNW,338,22.6,22.6,64,0.00,,,0.00,WUHU216HW,2013-07-16 08:26:00,
2013-07-16 02:30:00,57.8,45.6,29.93,NNW,338,16.8,22.6,64,0.00,,,0.00,WUHU216HW,2013-07-16 08:30:00,
2013-07-16 02:31:00,57.8,45.6,29.93,NNW,338,17.2,22.6,64,0.00,,,0.00,WUHU216HW,2013-07-16 08:31:00,
2013-07-16 02:35:00,57.6,45.5,29.94,NNW,338,20.4,22.6,64,0.00,,,0.00,WUHU216HW,2013-07-16 08:35:00,
2013-07-16 02:36:00,57.6,45.5,29.94,NNW,338,17.9,21.0,64,0.00,,,0.00,WUHU216HW,2013-07-16 08:36:00,
2013-07-16 02:37:00,57.6,45.5,29.94,NNW,338,20.8,21.0,64,0.00,,,0.00,WUHU216HW,2013-07-16 08:37:00,
2013-07-16 02:41:00,57.6,45.5,29.93,North,0,18.6,25.3,64,0.00,,,0.00,WUHU216HW,2013-07-16 08:41:00,
2013-07-16 02:42:00,57.6,45.5,29.94,NNW,338,15.2,25.3,64,0.00,,,0.00,WUHU216HW,2013-07-16 08:42:00,
2013-07-16 02:46:00,57.6,45.5,29.94,North,0,16.6,25.3,64,0.00,,,0.00,WUHU216HW,2013-07-16 08:46:00,
2013-07-16 02:47:00,57.4,45.3,29.94,NNW,338,17.2,22.6,64,0.00,,,0.00,WUHU216HW,2013-07-16 08:47:00,
2013-07-16 02:51:00,57.4,45.3,29.94,NNW,338,15.0,20.8,64,0.00,,,0.00,WUHU216HW,2013-07-16 08:51:00,
2013-07-16 02:52:00,57.4,45.3,29.94,North,0,17.9,20.8,64,0.00,,,0.00,WUHU216HW,2013-07-16 08:52:00,
2013-07-16 02:56:00,57.4,45.3,29.94,NNW,338,22.4,23.7,64,0.00,,,0.00,WUHU216HW,2013-07-16 08:56:00,
2013-07-16 02:57:00,57.6,45.5,29.95,NNW,338,15.7,23.7,64,0.00,,,0.00,WUHU216HW,2013-07-16 08:57:00,
2013-07-16 02:58:00,57.6,45.5,29.95,NNW,338,16.3,23.7,64,0.00,,,0.00,WUHU216HW,2013-07-16 08:58:00,
2013-07-16 03:01:00,57.6,45.5,29.95,NNW,338,24.2,24.2,64,0.00,,,0.00,WUHU216HW,2013-07-16 09:01:00,
2013-07-16 03:02:00,57.6,45.5,29.95,NW,315,20.4,24.2,64,0.00,,,0.00,WUHU216HW,2013-07-16 09:02:00,
2013-07-16 03:03:00,57.6,45.5,29.95,NW,315,19.2,24.2,64,0.00,,,0.00,WUHU216HW,2013-07-16 09:03:00,
2013-07-16 03:06:00,57.6,45.1,29.95,NNW,338,19.2,24.2,63,0.00,,,0.00,WUHU216HW,2013-07-16 09:06:00,
2013-07-16 03:07:00,57.6,45.1,29.95,NNW,338,18.6,24.2,63,0.00,,,0.00,WUHU216HW,2013-07-16 09:07:00,
2013-07-16 03:08:00,57.8,45.3,29.95,NNW,338,24.2,24.2,63,0.00,,,0.00,WUHU216HW,2013-07-16 09:08:00,
2013-07-16 03:11:00,57.8,45.3,29.95,NW,315,19.7,25.3,63,0.00,,,0.00,WUHU216HW,2013-07-16 09:11:00,
2013-07-16 03:12:00,57.8,45.3,29.95,NNW,338,20.8,25.3,63,0.00,,,0.00,WUHU216HW,2013-07-16 09:12:00,
2013-07-16 03:13:00,57.8,45.3,29.95,NNW,338,17.9,25.3,63,0.00,,,0.00,WUHU216HW,2013-07-16 09:13:00,
2013-07-16 03:16:00,57.8,45.3,29.95,NW,315,15.9,25.3,63,0.00,,,0.00,WUHU216HW,2013-07-16 09:16:00,
2013-07-16 03:17:00,57.8,45.3,29.95,NW,315,15.9,25.3,63,0.00,,,0.00,WUHU216HW,2013-07-16 09:17:00,
2013-07-16 03:18:00,57.6,45.1,29.95,NNW,338,19.9,25.3,63,0.00,,,0.00,WUHU216HW,2013-07-16 09:18:00,
2013-07-16 03:22:00,57.6,45.1,29.95,NNW,338,16.3,23.7,63,0.00,,,0.00,WUHU216HW,2013-07-16 09:22:00,
2013-07-16 03:23:00,57.6,45.1,29.95,NW,315,18.8,23.7,63,0.00,,,0.00,WUHU216HW,2013-07-16 09:23:00,
2013-07-16 03:27:00,57.2,44.7,29.95,NW,315,14.3,23.7,63,0.00,,,0.00,WUHU216HW,2013-07-16 09:27:00,
2013-07-16 03:28:00,57.2,44.7,29.95,NNW,338,12.1,23.7,63,0.00,,,0.00,WUHU216HW,2013-07-16 09:28:00,
2013-07-16 03:32:00,56.7,44.2,29.95,NNW,338,19.2,20.1,63,0.00,,,0.00,WUHU216HW,2013-07-16 09:32:00,
2013-07-16 03:33:00,56.5,44.5,29.95,NW,315,17.0,20.1,64,0.00,,,0.00,WUHU216HW,2013-07-16 09:33:00,
2013-07-16 03:37:00,56.5,44.5,29.95,NW,315,21.5,22.8,64,0.00,,,0.00,WUHU216HW,2013-07-16 09:37:00,
2013-07-16 03:38:00,56.5,44.5,29.95,NNW,338,20.1,22.8,64,0.00,,,0.00,WUHU216HW,2013-07-16 09:38:00,
2013-07-16 03:39:00,56.5,44.5,29.95,NNW,338,17.0,22.8,64,0.00,,,0.00,WUHU216HW,2013-07-16 09:39:00,
2013-07-16 03:43:00,56.3,44.3,29.95,NNW,338,14.3,22.8,64,0.00,,,0.00,WUHU216HW,2013-07-16 09:43:00,
2013-07-16 03:44:00,56.2,44.1,29.95,NNW,338,15.4,22.8,64,0.00,,,0.00,WUHU216HW,2013-07-16 09:44:00,
2013-07-16 03:48:00,56.2,44.1,29.95,NNW,338,20.1,20.1,64,0.00,,,0.00,WUHU216HW,2013-07-16 09:48:00,
2013-07-16 03:49:00,56.2,44.1,29.95,NNW,338,22.1,22.1,64,0.00,,,0.00,WUHU216HW,2013-07-16 09:49:00,
2013-07-16 03:54:00,56.0,43.9,29.95,NNW,338,16.6,22.1,64,0.00,,,0.00,WUHU216HW,2013-07-16 09:54:00,
2013-07-16 03:59:00,56.2,44.1,29.96,NW,315,18.6,22.1,64,0.00,,,0.00,WUHU216HW,2013-07-16 09:59:00,
2013-07-16 04:00:00,56.2,44.1,29.96,NNW,338,14.3,20.8,64,0.00,,,0.00,WUHU216HW,2013-07-16 10:00:00,
2013-07-16 04:04:00,56.2,44.1,29.95,NW,315,15.7,20.8,64,0.00,,,0.00,WUHU216HW,2013-07-16 10:04:00,
2013-07-16 04:05:00,56.3,44.3,29.96,NW,315,14.1,20.8,64,0.00,,,0.00,WUHU216HW,2013-07-16 10:05:00,
2013-07-16 04:09:00,56.3,44.3,29.96,NNW,338,15.4,19.2,64,0.00,,,0.00,WUHU216HW,2013-07-16 10:09:00,
2013-07-16 04:10:00,56.3,44.3,29.96,NW,315,19.9,19.9,64,0.00,,,0.00,WUHU216HW,2013-07-16 10:10:00,
2013-07-16 04:14:00,56.3,44.3,29.96,NW,315,13.6,19.9,64,0.00,,,0.00,WUHU216HW,2013-07-16 10:14:00,
2013-07-16 04:15:00,56.3,44.3,29.96,NW,315,15.7,19.9,64,0.00,,,0.00,WUHU216HW,2013-07-16 10:15:00,
2013-07-16 04:19:00,56.2,44.1,29.96,NW,315,13.2,19.9,64,0.00,,,0.00,WUHU216HW,2013-07-16 10:19:00,
2013-07-16 04:20:00,56.2,44.1,29.96,NW,315,15.7,19.5,64,0.00,,,0.00,WUHU216HW,2013-07-16 10:20:00,
2013-07-16 04:21:00,56.2,44.1,29.96,NNW,338,13.0,19.5,64,0.00,,,0.00,WUHU216HW,2013-07-16 10:21:00,
2013-07-16 04:24:00,55.8,43.7,29.96,NW,315,15.7,19.5,64,0.00,,,0.00,WUHU216HW,2013-07-16 10:24:00,
2013-07-16 04:25:00,55.8,43.7,29.96,NNW,338,15.0,19.5,64,0.00,,,0.00,WUHU216HW,2013-07-16 10:25:00,
2013-07-16 04:26:00,55.8,43.7,29.96,NNW,338,13.2,19.5,64,0.00,,,0.00,WUHU216HW,2013-07-16 10:26:00,
2013-07-16 04:29:00,55.4,43.8,29.96,NNW,338,16.3,17.0,65,0.00,,,0.00,WUHU216HW,2013-07-16 10:29:00,
2013-07-16 04:30:00,55.3,43.7,29.96,NNW,338,11.9,17.0,65,0.00,,,0.00,WUHU216HW,2013-07-16 10:30:00,
2013-07-16 04:31:00,55.3,43.7,29.96,NNW,338,16.1,17.0,65,0.00,,,0.00,WUHU216HW,2013-07-16 10:31:00,
2013-07-16 04:35:00,55.1,43.9,29.96,NNW,338,14.1,18.8,66,0.00,,,0.00,WUHU216HW,2013-07-16 10:35:00,
2013-07-16 04:36:00,55.3,44.1,29.96,North,0,13.4,18.8,66,0.00,,,0.00,WUHU216HW,2013-07-16 10:36:00,
2013-07-16 04:40:00,55.3,43.7,29.97,North,0,10.5,18.8,65,0.00,,,0.00,WUHU216HW,2013-07-16 10:40:00,
2013-07-16 04:41:00,55.3,43.7,29.97,NNW,338,10.3,18.8,65,0.00,,,0.00,WUHU216HW,2013-07-16 10:41:00,
2013-07-16 04:45:00,54.7,43.6,29.97,NNW,338,14.3,16.6,66,0.00,,,0.00,WUHU216HW,2013-07-16 10:45:00,
2013-07-16 04:46:00,54.7,43.6,29.97,NNW,338,14.3,16.6,66,0.00,,,0.00,WUHU216HW,2013-07-16 10:46:00,
2013-07-16 04:47:00,54.7,43.6,29.97,NNW,338,10.5,16.3,66,0.00,,,0.00,WUHU216HW,2013-07-16 10:47:00,
2013-07-16 04:51:00,54.5,43.8,29.97,NNW,338,12.8,15.9,67,0.00,,,0.00,WUHU216HW,2013-07-16 10:51:00,
2013-07-16 04:52:00,54.5,43.8,29.97,North,0,14.5,15.9,67,0.00,,,0.00,WUHU216HW,2013-07-16 10:52:00,
2013-07-16 04:56:00,54.4,43.7,29.97,NW,315,17.0,17.0,67,0.00,,,0.00,WUHU216HW,2013-07-16 10:56:00,
2013-07-16 04:57:00,54.4,43.7,29.97,NW,315,12.8,17.0,67,0.00,,,0.00,WUHU216HW,2013-07-16 10:57:00,
2013-07-16 05:01:00,54.4,43.7,29.97,NNW,338,19.0,19.0,67,0.00,,,0.00,WUHU216HW,2013-07-16 11:01:00,
2013-07-16 05:02:00,54.2,43.5,29.97,NW,315,15.7,20.6,67,0.00,,,0.00,WUHU216HW,2013-07-16 11:02:00,
2013-07-16 05:06:00,54.2,43.5,29.97,NW,315,12.3,20.6,67,0.00,,,0.00,WUHU216HW,2013-07-16 11:06:00,
2013-07-16 05:07:00,54.2,43.5,29.97,NW,315,14.3,20.6,67,0.00,,,0.00,WUHU216HW,2013-07-16 11:07:00,
2013-07-16 05:11:00,54.0,43.7,29.97,NNW,338,11.4,20.6,68,0.00,,,0.00,WUHU216HW,2013-07-16 11:11:00,
2013-07-16 05:12:00,53.8,43.5,29.97,NW,315,10.7,18.1,68,0.00,,,0.00,WUHU216HW,2013-07-16 11:12:00,
2013-07-16 05:16:00,53.8,43.5,29.97,NNW,338,13.6,15.9,68,0.00,,,0.00,WUHU216HW,2013-07-16 11:16:00,
2013-07-16 05:17:00,53.6,43.3,29.97,NNW,338,13.0,15.9,68,0.00,,,0.00,WUHU216HW,2013-07-16 11:17:00,
2013-07-16 05:18:00,53.6,43.3,29.97,NW,315,13.0,15.9,68,0.00,,,0.00,WUHU216HW,2013-07-16 11:18:00,
2013-07-16 05:21:00,53.5,43.6,29.97,NW,315,16.1,16.1,69,0.00,,,0.00,WUHU216HW,2013-07-16 11:21:00,
2013-07-16 05:22:00,53.5,43.6,29.97,NW,315,19.5,19.5,69,0.00,,,0.00,WUHU216HW,2013-07-16 11:22:00,
2013-07-16 05:23:00,53.5,43.6,29.97,NNW,338,13.4,19.5,69,0.00,,,0.00,WUHU216HW,2013-07-16 11:23:00,
2013-07-16 05:26:00,53.5,43.6,29.97,NNW,338,10.7,19.5,69,0.00,,,0.00,WUHU216HW,2013-07-16 11:26:00,
2013-07-16 05:27:00,53.3,43.4,29.97,NNW,338,13.0,19.5,69,0.00,,,0.00,WUHU216HW,2013-07-16 11:27:00,
2013-07-16 05:28:00,53.3,43.4,29.97,NNW,338,16.8,19.5,69,0.00,,,0.00,WUHU216HW,2013-07-16 11:28:00,
2013-07-16 05:29:00,53.3,43.4,29.97,NNW,338,10.3,19.5,69,0.00,,,0.00,WUHU216HW,2013-07-16 11:29:00,
2013-07-16 05:31:00,53.3,43.4,29.97,NNW,338,12.8,19.5,69,0.00,,,0.00,WUHU216HW,2013-07-16 11:31:00,
2013-07-16 05:32:00,53.1,43.2,29.97,NNW,338,14.8,19.2,69,0.00,,,0.00,WUHU216HW,2013-07-16 11:32:00,
2013-07-16 05:34:00,53.1,43.2,29.97,NNW,338,13.4,19.2,69,0.00,,,0.00,WUHU216HW,2013-07-16 11:34:00,
2013-07-16 05:36:00,53.1,43.2,29.98,NNW,338,13.2,19.2,69,0.00,,,0.00,WUHU216HW,2013-07-16 11:36:00,
2013-07-16 05:37:00,52.9,43.0,29.98,NW,315,13.0,19.2,69,0.00,,,0.00,WUHU216HW,2013-07-16 11:37:00,
2013-07-16 05:38:00,52.9,43.0,29.98,NW,315,13.9,19.2,69,0.00,,,0.00,WUHU216HW,2013-07-16 11:38:00,
2013-07-16 05:39:00,52.9,43.0,29.98,NW,315,14.5,19.2,69,0.00,,,0.00,WUHU216HW,2013-07-16 11:39:00,
2013-07-16 05:42:00,52.9,43.0,29.98,NNW,338,19.2,19.2,69,0.00,,,0.00,WUHU216HW,2013-07-16 11:42:00,
2013-07-16 05:43:00,52.9,43.0,29.98,NNW,338,19.2,19.2,69,0.00,,,0.00,WUHU216HW,2013-07-16 11:43:00,
2013-07-16 05:44:00,52.9,43.0,29.98,NNW,338,20.8,20.8,69,0.00,,,0.00,WUHU216HW,2013-07-16 11:44:00,
2013-07-16 05:47:00,52.9,43.0,29.98,NNW,338,14.5,20.8,69,0.00,,,0.00,WUHU216HW,2013-07-16 11:47:00,
2013-07-16 05:48:00,52.9,43.0,29.98,NNW,338,19.5,20.8,69,0.00,,,0.00,WUHU216HW,2013-07-16 11:48:00,
2013-07-16 05:49:00,52.9,43.0,29.98,NNW,338,15.7,20.8,69,0.00,,,0.00,WUHU216HW,2013-07-16 11:49:00,
2013-07-16 05:52:00,52.9,43.0,29.98,NNW,338,15.7,20.8,69,0.00,,,0.00,WUHU216HW,2013-07-16 11:52:00,
2013-07-16 05:53:00,52.9,43.0,29.98,NNW,338,15.7,20.8,69,0.00,,,0.00,WUHU216HW,2013-07-16 11:53:00,
2013-07-16 05:54:00,52.9,43.0,29.98,NNW,338,17.7,19.7,69,0.00,,,0.00,WUHU216HW,2013-07-16 11:54:00,
2013-07-16 05:58:00,52.9,43.0,29.98,NNW,338,15.7,20.1,69,0.00,,,0.00,WUHU216HW,2013-07-16 11:58:00,
2013-07-16 05:59:00,52.9,43.0,29.99,NNW,338,13.9,20.1,69,0.00,,,0.00,WUHU216HW,2013-07-16 11:59:00,
2013-07-16 06:03:00,52.9,43.0,29.98,NNW,338,15.2,20.1,69,0.00,,,0.00,WUHU216HW,2013-07-16 12:03:00,
2013-07-16 06:04:00,52.9,43.5,29.98,NNW,338,14.8,20.1,70,0.00,,,0.00,WUHU216HW,2013-07-16 12:04:00,
2013-07-16 06:05:00,52.9,43.5,29.98,NNW,338,16.3,20.1,70,0.00,,,0.00,WUHU216HW,2013-07-16 12:05:00,
2013-07-16 06:08:00,52.9,43.5,29.99,North,0,12.5,17.9,70,0.00,,,0.00,WUHU216HW,2013-07-16 12:08:00,
2013-07-16 06:09:00,52.7,43.3,29.98,NNW,338,15.7,17.9,70,0.00,,,0.00,WUHU216HW,2013-07-16 12:09:00,
2013-07-16 06:10:00,52.7,43.3,29.98,NNW,338,15.7,17.9,70,0.00,,,0.00,WUHU216HW,2013-07-16 12:10:00,
2013-07-16 06:13:00,52.7,43.3,29.99,NNW,338,19.2,19.2,70,0.00,,,0.00,WUHU216HW,2013-07-16 12:13:00,
2013-07-16 06:14:00,52.7,43.3,29.99,NW,315,15.7,19.2,70,0.00,,,0.00,WUHU216HW,2013-07-16 12:14:00,
2013-07-16 06:15:00,52.7,43.3,29.99,NNW,338,13.6,19.2,70,0.00,,,0.00,WUHU216HW,2013-07-16 12:15:00,
2013-07-16 06:18:00,52.9,43.5,29.99,NW,315,13.4,20.1,70,0.00,,,0.00,WUHU216HW,2013-07-16 12:18:00,
2013-07-16 06:19:00,52.7,43.3,29.99,NNW,338,14.5,20.1,70,0.00,,,0.00,WUHU216HW,2013-07-16 12:19:00,
2013-07-16 06:20:00,52.7,43.3,29.99,North,0,14.1,20.1,70,0.00,,,0.00,WUHU216HW,2013-07-16 12:20:00,
2013-07-16 06:21:00,52.7,43.3,29.99,NNW,338,13.9,20.1,70,0.00,,,0.00,WUHU216HW,2013-07-16 12:21:00,
2013-07-16 06:23:00,52.7,43.3,29.99,NNW,338,13.0,20.1,70,0.00,,,0.00,WUHU216HW,2013-07-16 12:23:00,
2013-07-16 06:24:00,52.7,43.3,29.99,NNW,338,12.8,20.1,70,0.00,,,0.00,WUHU216HW,2013-07-16 12:24:00,
2013-07-16 06:25:00,52.9,43.5,29.99,NW,315,13.0,20.1,70,0.00,,,0.00,WUHU216HW,2013-07-16 12:25:00,
2013-07-16 06:26:00,52.9,43.5,29.99,NW,315,12.1,20.1,70,0.00,,,0.00,WUHU216HW,2013-07-16 12:26:00,
2013-07-16 06:28:00,52.7,43.3,29.99,NNW,338,16.1,16.6,70,0.00,,,0.00,WUHU216HW,2013-07-16 12:28:00,
2013-07-16 06:29:00,52.9,43.5,29.99,NNW,338,11.6,16.6,70,0.00,,,0.00,WUHU216HW,2013-07-16 12:29:00,
2013-07-16 06:30:00,52.9,43.5,29.99,NW,315,9.2,16.6,70,0.00,,,0.00,WUHU216HW,2013-07-16 12:30:00,
2013-07-16 06:31:00,52.9,43.5,29.99,NNW,338,11.4,16.6,70,0.00,,,0.00,WUHU216HW,2013-07-16 12:31:00,
2013-07-16 06:33:00,52.9,43.5,29.99,NW,315,11.0,16.6,70,0.00,,,0.00,WUHU216HW,2013-07-16 12:33:00,
2013-07-16 06:34:00,52.9,43.5,29.99,NNW,338,9.8,16.6,70,0.00,,,0.00,WUHU216HW,2013-07-16 12:34:00,
2013-07-16 06:35:00,52.9,43.5,29.99,WNW,293,12.1,16.6,70,0.00,,,0.00,WUHU216HW,2013-07-16 12:35:00,
2013-07-16 06:36:00,52.9,43.5,29.99,NW,315,11.9,16.6,70,0.00,,,0.00,WUHU216HW,2013-07-16 12:36:00,
2013-07-16 06:38:00,53.1,43.2,29.99,NNW,338,13.0,15.2,69,0.00,,,0.00,WUHU216HW,2013-07-16 12:38:00,
2013-07-16 06:39:00,53.1,43.2,29.99,NNW,338,15.7,15.7,69,0.00,,,0.00,WUHU216HW,2013-07-16 12:39:00,
2013-07-16 06:41:00,53.3,43.4,29.99,NNW,338,15.0,15.7,69,0.00,,,0.00,WUHU216HW,2013-07-16 12:41:00,
2013-07-16 06:43:00,53.3,43.4,29.99,NW,315,14.3,15.7,69,0.00,,,0.00,WUHU216HW,2013-07-16 12:43:00,
2013-07-16 06:44:00,53.3,43.4,29.99,NNW,338,10.3,15.7,69,0.00,,,0.00,WUHU216HW,2013-07-16 12:44:00,
2013-07-16 06:46:00,53.3,43.4,29.99,NW,315,13.0,15.7,69,0.00,,,0.00,WUHU216HW,2013-07-16 12:46:00,
2013-07-16 06:48:00,53.5,43.6,29.99,North,0,12.1,15.7,69,0.00,,,0.00,WUHU216HW,2013-07-16 12:48:00,
2013-07-16 06:49:00,53.5,43.6,29.99,NNW,338,11.4,15.7,69,0.00,,,0.00,WUHU216HW,2013-07-16 12:49:00,
2013-07-16 06:51:00,53.5,43.6,29.99,NNW,338,12.8,16.3,69,0.00,,,0.00,WUHU216HW,2013-07-16 12:51:00,
2013-07-16 06:54:00,53.6,43.8,30.00,NNW,338,12.5,16.3,69,0.00,,,0.00,WUHU216HW,2013-07-16 12:54:00,
2013-07-16 06:56:00,53.6,43.8,30.00,NNW,338,9.2,16.3,69,0.00,,,0.00,WUHU216HW,2013-07-16 12:56:00,
2013-07-16 06:57:00,53.6,43.3,30.00,NW,315,13.4,16.3,68,0.00,,,0.00,WUHU216HW,2013-07-16 12:57:00,
2013-07-16 06:59:00,53.8,43.5,30.00,NNW,338,11.4,16.3,68,0.00,,,0.00,WUHU216HW,2013-07-16 12:59:00,
2013-07-16 07:01:00,53.8,43.5,30.00,NW,315,14.3,16.1,68,0.00,,,0.00,WUHU216HW,2013-07-16 13:01:00,
2013-07-16 07:02:00,54.0,43.7,30.00,NNW,338,16.6,16.6,68,0.00,,,0.00,WUHU216HW,2013-07-16 13:02:00,
2013-07-16 07:03:00,54.0,43.7,30.00,NW,315,11.6,16.6,68,0.00,,,0.00,WUHU216HW,2013-07-16 13:03:00,
2013-07-16 07:04:00,54.0,43.7,30.00,North,0,13.2,16.6,68,0.00,,,0.00,WUHU216HW,2013-07-16 13:04:00,
2013-07-16 07:06:00,54.0,43.7,30.00,NNW,338,10.1,16.6,68,0.00,,,0.00,WUHU216HW,2013-07-16 13:06:00,
2013-07-16 07:07:00,54.2,43.8,30.00,NW,315,15.4,16.6,68,0.00,,,0.00,WUHU216HW,2013-07-16 13:07:00,
2013-07-16 07:08:00,54.0,43.7,30.00,NNW,338,12.3,16.6,68,0.00,,,0.00,WUHU216HW,2013-07-16 13:08:00,
2013-07-16 07:10:00,54.2,43.5,29.99,NNW,338,16.8,16.8,67,0.00,,,0.00,WUHU216HW,2013-07-16 13:10:00,
2013-07-16 07:11:00,54.2,43.5,30.00,NNW,338,14.8,16.8,67,0.00,,,0.00,WUHU216HW,2013-07-16 13:11:00,
2013-07-16 07:12:00,54.2,43.5,30.00,NNW,338,11.4,16.8,67,0.00,,,0.00,WUHU216HW,2013-07-16 13:12:00,
2013-07-16 07:13:00,54.4,43.7,30.00,NNW,338,12.1,16.8,67,0.00,,,0.00,WUHU216HW,2013-07-16 13:13:00,
2013-07-16 07:15:00,54.2,43.5,30.00,NNW,338,11.6,16.8,67,0.00,,,0.00,WUHU216HW,2013-07-16 13:15:00,
2013-07-16 07:16:00,54.4,43.7,30.00,NNW,338,11.6,16.8,67,0.00,,,0.00,WUHU216HW,2013-07-16 13:16:00,
2013-07-16 07:17:00,54.4,43.7,30.00,NW,315,9.8,16.8,67,0.00,,,0.00,WUHU216HW,2013-07-16 13:17:00,
2013-07-16 07:18:00,54.4,43.7,30.00,NNW,338,16.6,16.8,67,0.00,,,0.00,WUHU216HW,2013-07-16 13:18:00,
2013-07-16 07:20:00,54.5,43.8,30.00,NNW,338,12.8,16.6,67,0.00,,,0.00,WUHU216HW,2013-07-16 13:20:00,
2013-07-16 07:21:00,54.4,43.7,30.00,North,0,12.5,16.6,67,0.00,,,0.00,WUHU216HW,2013-07-16 13:21:00,
2013-07-16 07:23:00,54.5,43.8,30.00,NNW,338,12.1,16.6,67,0.00,,,0.00,WUHU216HW,2013-07-16 13:23:00,
2013-07-16 07:25:00,54.5,43.4,30.00,NNW,338,12.1,17.4,66,0.00,,,0.00,WUHU216HW,2013-07-16 13:25:00,
2013-07-16 07:26:00,54.5,43.4,30.00,NNW,338,12.1,17.4,66,0.00,,,0.00,WUHU216HW,2013-07-16 13:26:00,
2013-07-16 07:28:00,54.7,43.6,30.00,NNW,338,9.2,17.4,66,0.00,,,0.00,WUHU216HW,2013-07-16 13:28:00,
2013-07-16 07:31:00,54.9,43.8,30.00,NNW,338,10.1,17.4,66,0.00,,,0.00,WUHU216HW,2013-07-16 13:31:00,
2013-07-16 07:33:00,54.9,43.3,30.00,NNW,338,15.7,17.4,65,0.00,,,0.00,WUHU216HW,2013-07-16 13:33:00,
2013-07-16 07:34:00,55.1,43.5,30.00,NW,315,14.1,17.4,65,0.00,,,0.00,WUHU216HW,2013-07-16 13:34:00,
2013-07-16 07:36:00,55.1,43.5,30.00,NNW,338,11.4,16.3,65,0.00,,,0.00,WUHU216HW,2013-07-16 13:36:00,
2013-07-16 07:37:00,55.1,43.5,30.00,NW,315,15.0,16.3,65,0.00,,,0.00,WUHU216HW,2013-07-16 13:37:00,
2013-07-16 07:38:00,55.1,43.5,30.00,NNW,338,8.7,16.3,65,0.00,,,0.00,WUHU216HW,2013-07-16 13:38:00,
2013-07-16 07:39:00,55.1,43.5,30.00,North,0,8.5,16.3,65,0.00,,,0.00,WUHU216HW,2013-07-16 13:39:00,
2013-07-16 07:41:00,55.3,43.3,30.00,NNW,338,13.0,16.3,64,0.00,,,0.00,WUHU216HW,2013-07-16 13:41:00,
2013-07-16 07:42:00,55.3,43.3,30.00,NNW,338,14.5,16.3,64,0.00,,,0.00,WUHU216HW,2013-07-16 13:42:00,
2013-07-16 07:43:00,55.3,43.3,30.00,NNW,338,13.4,16.3,64,0.00,,,0.00,WUHU216HW,2013-07-16 13:43:00,
2013-07-16 07:44:00,55.3,43.3,30.00,NW,315,8.1,16.3,64,0.00,,,0.00,WUHU216HW,2013-07-16 13:44:00,
2013-07-16 07:46:00,55.4,43.4,30.00,NNW,338,16.3,17.7,64,0.00,,,0.00,WUHU216HW,2013-07-16 13:46:00,
2013-07-16 07:47:00,55.4,43.4,30.00,NNW,338,16.3,17.7,64,0.00,,,0.00,WUHU216HW,2013-07-16 13:47:00,
2013-07-16 07:48:00,55.4,43.4,30.00,NNW,338,14.3,17.7,64,0.00,,,0.00,WUHU216HW,2013-07-16 13:48:00,
2013-07-16 07:50:00,55.4,43.4,30.00,NW,315,16.1,17.7,64,0.00,,,0.00,WUHU216HW,2013-07-16 13:50:00,
2013-07-16 07:51:00,55.4,43.4,30.00,NNW,338,12.5,17.7,64,0.00,,,0.00,WUHU216HW,2013-07-16 13:51:00,
2013-07-16 07:52:00,55.6,43.6,30.00,NNW,338,13.9,17.7,64,0.00,,,0.00,WUHU216HW,2013-07-16 13:52:00,
2013-07-16 07:53:00,55.6,43.6,30.01,NNW,338,13.9,17.7,64,0.00,,,0.00,WUHU216HW,2013-07-16 13:53:00,
2013-07-16 07:54:00,55.4,43.4,30.01,NNW,338,14.5,17.7,64,0.00,,,0.00,WUHU216HW,2013-07-16 13:54:00,
2013-07-16 07:55:00,55.4,43.4,30.00,North,0,12.8,17.7,64,0.00,,,0.00,WUHU216HW,2013-07-16 13:55:00,
2013-07-16 07:56:00,55.6,43.6,30.00,NNW,338,16.1,16.3,64,0.00,,,0.00,WUHU216HW,2013-07-16 13:56:00,
2013-07-16 07:57:00,55.6,43.6,30.01,NNW,338,15.0,16.3,64,0.00,,,0.00,WUHU216HW,2013-07-16 13:57:00,
2013-07-16 07:58:00,55.6,43.2,30.00,North,0,16.8,16.8,63,0.00,,,0.00,WUHU216HW,2013-07-16 13:58:00,
2013-07-16 07:59:00,55.6,43.6,30.00,NNW,338,13.2,16.8,64,0.00,,,0.00,WUHU216HW,2013-07-16 13:59:00,
2013-07-16 08:00:00,55.6,43.6,30.00,NNW,338,12.8,16.8,64,0.00,,,0.00,WUHU216HW,2013-07-16 14:00:00,
2013-07-16 08:01:00,55.6,43.6,30.00,NNW,338,12.8,16.8,64,0.00,,,0.00,WUHU216HW,2013-07-16 14:01:00,
2013-07-16 08:02:00,55.6,43.6,30.00,NW,315,13.4,16.8,64,0.00,,,0.00,WUHU216HW,2013-07-16 14:02:00,
2013-07-16 08:03:00,55.8,43.7,30.00,NNW,338,14.5,16.8,64,0.00,,,0.00,WUHU216HW,2013-07-16 14:03:00,
2013-07-16 08:04:00,55.8,43.7,30.00,NNW,338,14.5,16.8,64,0.00,,,0.00,WUHU216HW,2013-07-16 14:04:00,
2013-07-16 08:05:00,55.8,43.4,30.01,NNW,338,14.3,16.8,63,0.00,,,0.00,WUHU216HW,2013-07-16 14:05:00,
2013-07-16 08:07:00,55.8,43.4,30.00,NNW,338,13.9,16.8,63,0.00,,,0.00,WUHU216HW,2013-07-16 14:07:00,
2013-07-16 08:09:00,55.8,43.7,30.00,NNW,338,13.4,14.8,64,0.00,,,0.00,WUHU216HW,2013-07-16 14:09:00,
2013-07-16 08:10:00,56.2,43.8,30.00,NNW,338,12.3,14.8,63,0.00,,,0.00,WUHU216HW,2013-07-16 14:10:00,
2013-07-16 08:12:00,56.2,43.8,30.00,NNW,338,11.6,14.8,63,0.00,,,0.00,WUHU216HW,2013-07-16 14:12:00,
2013-07-16 08:13:00,56.2,43.8,30.00,NNW,338,15.0,15.0,63,0.00,,,0.00,WUHU216HW,2013-07-16 14:13:00,
2013-07-16 08:14:00,56.2,43.3,30.01,NNW,338,15.0,15.0,62,0.00,,,0.00,WUHU216HW,2013-07-16 14:14:00,
2013-07-16 08:17:00,56.2,43.8,30.01,NNW,338,12.1,15.0,63,0.00,,,0.00,WUHU216HW,2013-07-16 14:17:00,
2013-07-16 08:18:00,56.2,43.8,30.00,NNW,338,12.1,16.1,63,0.00,,,0.00,WUHU216HW,2013-07-16 14:18:00,
2013-07-16 08:19:00,56.2,43.3,30.00,NNW,338,11.0,16.1,62,0.00,,,0.00,WUHU216HW,2013-07-16 14:19:00,
2013-07-16 08:22:00,56.5,43.7,30.00,NNW,338,13.0,17.4,62,0.00,,,0.00,WUHU216HW,2013-07-16 14:22:00,
2013-07-16 08:23:00,56.5,43.7,30.00,NNW,338,13.0,17.4,62,0.00,,,0.00,WUHU216HW,2013-07-16 14:23:00,
2013-07-16 08:24:00,56.5,43.7,30.00,NNW,338,15.7,17.4,62,0.00,,,0.00,WUHU216HW,2013-07-16 14:24:00,
2013-07-16 08:25:00,56.5,43.7,30.00,NNW,338,15.7,17.4,62,0.00,,,0.00,WUHU216HW,2013-07-16 14:25:00,
2013-07-16 08:27:00,56.7,43.8,30.01,NW,315,16.8,17.4,62,0.00,,,0.00,WUHU216HW,2013-07-16 14:27:00,
2013-07-16 08:28:00,56.9,44.0,30.01,NNW,338,13.9,17.4,62,0.00,,,0.00,WUHU216HW,2013-07-16 14:28:00,
2013-07-16 08:30:00,57.1,43.7,30.01,NW,315,12.1,16.8,61,0.00,,,0.00,WUHU216HW,2013-07-16 14:30:00,
2013-07-16 08:32:00,57.2,43.6,30.01,NW,315,12.1,16.8,60,0.00,,,0.00,WUHU216HW,2013-07-16 14:32:00,
2013-07-16 08:33:00,57.2,43.6,30.01,North,0,0.0,16.8,60,0.00,,,0.00,WUHU216HW,2013-07-16 14:33:00,
2013-07-16 08:35:00,57.2,43.6,30.01,North,0,0.0,16.8,60,0.00,,,0.00,WUHU216HW,2013-07-16 14:35:00,
2013-07-16 08:37:00,57.6,43.4,30.01,North,0,0.0,16.8,59,0.00,,,0.00,WUHU216HW,2013-07-16 14:37:00,
2013-07-16 08:39:00,57.8,43.6,30.01,North,0,0.0,12.1,59,0.00,,,0.00,WUHU216HW,2013-07-16 14:39:00,
2013-07-16 08:40:00,57.8,43.1,30.01,North,0,0.0,12.1,58,0.00,,,0.00,WUHU216HW,2013-07-16 14:40:00,
2013-07-16 08:43:00,57.8,43.6,30.01,NNW,338,11.6,15.4,59,0.00,,,0.00,WUHU216HW,2013-07-16 14:43:00,
2013-07-16 08:44:00,57.8,43.1,30.01,NNW,338,15.0,15.4,58,0.00,,,0.00,WUHU216HW,2013-07-16 14:44:00,
2013-07-16 08:45:00,57.6,43.4,30.01,NNW,338,12.3,15.4,59,0.00,,,0.00,WUHU216HW,2013-07-16 14:45:00,
2013-07-16 08:46:00,57.8,43.6,30.01,North,0,11.4,15.4,59,0.00,,,0.00,WUHU216HW,2013-07-16 14:46:00,
2013-07-16 08:48:00,57.6,42.9,30.00,North,0,14.1,15.4,58,0.00,,,0.00,WUHU216HW,2013-07-16 14:48:00,
2013-07-16 08:49:00,57.6,42.9,30.00,NW,315,12.8,15.4,58,0.00,,,0.00,WUHU216HW,2013-07-16 14:49:00,
2013-07-16 08:50:00,57.6,43.4,30.01,NNW,338,9.8,15.4,59,0.00,,,0.00,WUHU216HW,2013-07-16 14:50:00,
2013-07-16 08:51:00,57.6,43.4,30.01,NNW,338,11.9,15.4,59,0.00,,,0.00,WUHU216HW,2013-07-16 14:51:00,
2013-07-16 08:53:00,58.0,43.7,30.01,NW,315,11.2,15.0,59,0.00,,,0.00,WUHU216HW,2013-07-16 14:53:00,
2013-07-16 08:54:00,58.0,43.3,30.01,NNW,338,9.8,15.0,58,0.00,,,0.00,WUHU216HW,2013-07-16 14:54:00,
2013-07-16 08:55:00,58.0,43.3,30.00,NNW,338,13.2,15.0,58,0.00,,,0.00,WUHU216HW,2013-07-16 14:55:00,
2013-07-16 08:56:00,58.0,43.3,30.00,NW,315,10.3,15.0,58,0.00,,,0.00,WUHU216HW,2013-07-16 14:56:00,
2013-07-16 08:59:00,58.1,43.5,30.00,NNW,338,14.8,15.0,58,0.00,,,0.00,WUHU216HW,2013-07-16 14:59:00,
2013-07-16 09:00:00,58.3,43.6,30.00,NNW,338,11.4,15.2,58,0.00,,,0.00,WUHU216HW,2013-07-16 15:00:00,
2013-07-16 09:01:00,58.3,43.6,30.00,NNW,338,11.4,15.2,58,0.00,,,0.00,WUHU216HW,2013-07-16 15:01:00,
2013-07-16 09:04:00,58.7,43.9,30.00,NNW,338,9.2,15.2,58,0.00,,,0.00,WUHU216HW,2013-07-16 15:04:00,
2013-07-16 09:05:00,58.9,44.1,30.00,NNW,338,9.2,15.2,58,0.00,,,0.00,WUHU216HW,2013-07-16 15:05:00,
2013-07-16 09:06:00,59.0,43.7,30.00,NNW,338,13.6,15.2,57,0.00,,,0.00,WUHU216HW,2013-07-16 15:06:00,
2013-07-16 09:09:00,58.9,43.7,30.00,NW,315,13.6,15.2,57,0.00,,,0.00,WUHU216HW,2013-07-16 15:09:00,
2013-07-16 09:10:00,59.0,43.3,30.00,NNW,338,13.4,15.2,56,0.00,,,0.00,WUHU216HW,2013-07-16 15:10:00,
2013-07-16 09:11:00,58.9,43.1,30.00,NNW,338,9.6,14.5,56,0.00,,,0.00,WUHU216HW,2013-07-16 15:11:00,
2013-07-16 09:14:00,59.0,43.3,30.00,NNW,338,12.5,14.5,56,0.00,,,0.00,WUHU216HW,2013-07-16 15:14:00,
2013-07-16 09:15:00,59.2,43.5,30.00,NNW,338,9.8,14.5,56,0.00,,,0.00,WUHU216HW,2013-07-16 15:15:00,
2013-07-16 09:16:00,59.2,43.5,30.00,NNW,338,15.4,15.4,56,0.00,,,0.00,WUHU216HW,2013-07-16 15:16:00,
2013-07-16 09:17:00,59.4,43.7,30.00,NNW,338,13.6,15.4,56,0.00,,,0.00,WUHU216HW,2013-07-16 15:17:00,
2013-07-16 09:19:00,59.6,43.8,30.01,NNW,338,11.4,15.4,56,0.00,,,0.00,WUHU216HW,2013-07-16 15:19:00,
2013-07-16 09:20:00,59.6,43.8,30.00,NNW,338,11.4,15.4,56,0.00,,,0.00,WUHU216HW,2013-07-16 15:20:00,
2013-07-16 09:21:00,59.4,43.7,30.00,NNW,338,9.8,15.4,56,0.00,,,0.00,WUHU216HW,2013-07-16 15:21:00,
2013-07-16 09:22:00,59.6,43.8,30.00,NNW,338,15.7,15.7,56,0.00,,,0.00,WUHU216HW,2013-07-16 15:22:00,
2013-07-16 09:25:00,59.8,43.6,30.00,NNW,338,12.1,15.7,55,0.00,,,0.00,WUHU216HW,2013-07-16 15:25:00,
2013-07-16 09:27:00,59.4,43.7,30.00,NNW,338,6.5,15.7,56,0.00,,,0.00,WUHU216HW,2013-07-16 15:27:00,
2013-07-16 09:30:00,59.4,43.2,30.00,NNW,338,13.4,15.7,55,0.00,,,0.00,WUHU216HW,2013-07-16 15:30:00,
2013-07-16 09:32:00,59.2,43.5,30.00,NW,315,15.0,15.7,56,0.00,,,0.00,WUHU216HW,2013-07-16 15:32:00,
2013-07-16 09:33:00,59.2,43.5,30.00,NNW,338,12.8,15.0,56,0.00,,,0.00,WUHU216HW,2013-07-16 15:33:00,
2013-07-16 09:35:00,59.6,43.4,30.00,NW,315,8.1,15.0,55,0.00,,,0.00,WUHU216HW,2013-07-16 15:35:00,
2013-07-16 09:36:00,59.6,43.4,30.00,NNW,338,13.2,15.0,55,0.00,,,0.00,WUHU216HW,2013-07-16 15:36:00,
2013-07-16 09:38:00,59.6,43.4,30.00,NNW,338,14.3,15.0,55,0.00,,,0.00,WUHU216HW,2013-07-16 15:38:00,
2013-07-16 09:40:00,59.6,43.8,30.00,NNW,338,11.2,15.0,56,0.00,,,0.00,WUHU216HW,2013-07-16 15:40:00,
2013-07-16 09:41:00,59.6,43.8,30.00,NNW,338,11.0,15.0,56,0.00,,,0.00,WUHU216HW,2013-07-16 15:41:00,
2013-07-16 09:43:00,59.6,43.8,30.00,NNW,338,6.7,14.3,56,0.00,,,0.00,WUHU216HW,2013-07-16 15:43:00,
2013-07-16 09:46:00,59.6,43.8,30.00,North,0,7.8,14.3,56,0.00,,,0.00,WUHU216HW,2013-07-16 15:46:00,
2013-07-16 09:48:00,59.9,43.7,30.00,NNW,338,11.2,14.3,55,0.00,,,0.00,WUHU216HW,2013-07-16 15:48:00,
2013-07-16 09:49:00,60.1,43.8,30.00,North,0,12.1,12.8,55,0.00,,,0.00,WUHU216HW,2013-07-16 15:49:00,
2013-07-16 09:51:00,60.1,43.8,30.00,NNW,338,8.3,14.1,55,0.00,,,0.00,WUHU216HW,2013-07-16 15:51:00,
2013-07-16 09:52:00,60.1,43.8,30.00,NNW,338,13.0,14.1,55,0.00,,,0.00,WUHU216HW,2013-07-16 15:52:00,
2013-07-16 09:53:00,60.1,43.8,30.00,NNW,338,13.4,14.1,55,0.00,,,0.00,WUHU216HW,2013-07-16 15:53:00,
2013-07-16 09:54:00,60.1,43.8,30.00,NNW,338,13.4,14.1,55,0.00,,,0.00,WUHU216HW,2013-07-16 15:54:00,
2013-07-16 09:56:00,60.3,44.0,30.00,North,0,10.1,14.1,55,0.00,,,0.00,WUHU216HW,2013-07-16 15:56:00,
2013-07-16 09:57:00,60.3,44.0,30.00,North,0,10.1,14.1,55,0.00,,,0.00,WUHU216HW,2013-07-16 15:57:00,
2013-07-16 09:58:00,60.3,43.6,30.00,NNW,338,10.7,14.1,54,0.00,,,0.00,WUHU216HW,2013-07-16 15:58:00,
2013-07-16 09:59:00,60.3,43.6,30.00,North,0,9.4,14.1,54,0.00,,,0.00,WUHU216HW,2013-07-16 15:59:00,
2013-07-16 10:01:00,60.8,44.1,30.00,NNW,338,11.6,14.3,54,0.00,,,0.00,WUHU216HW,2013-07-16 16:01:00,
2013-07-16 10:02:00,61.0,44.2,30.00,NNW,338,11.9,14.3,54,0.00,,,0.00,WUHU216HW,2013-07-16 16:02:00,
2013-07-16 10:03:00,61.2,43.9,30.00,NNW,338,10.7,14.3,53,0.00,,,0.00,WUHU216HW,2013-07-16 16:03:00,
2013-07-16 10:04:00,61.2,43.9,30.00,NW,315,13.2,14.3,53,0.00,,,0.00,WUHU216HW,2013-07-16 16:04:00,
2013-07-16 10:06:00,61.4,44.1,30.00,North,0,8.3,14.3,53,0.00,,,0.00,WUHU216HW,2013-07-16 16:06:00,
2013-07-16 10:07:00,61.6,44.2,30.00,NNW,338,8.7,14.3,53,0.00,,,0.00,WUHU216HW,2013-07-16 16:07:00,
2013-07-16 10:08:00,61.4,43.6,30.00,NNW,338,8.5,14.3,52,0.00,,,0.00,WUHU216HW,2013-07-16 16:08:00,
2013-07-16 10:09:00,61.4,43.6,30.00,NNW,338,10.5,14.3,52,0.00,,,0.00,WUHU216HW,2013-07-16 16:09:00,
2013-07-16 10:11:00,61.0,43.7,30.00,NNW,338,7.6,13.2,53,0.00,,,0.00,WUHU216HW,2013-07-16 16:11:00,
2013-07-16 10:12:00,61.2,43.9,30.00,NNW,338,8.3,13.2,53,0.00,,,0.00,WUHU216HW,2013-07-16 16:12:00,
2013-07-16 10:14:00,61.2,43.9,30.00,NNW,338,10.7,13.2,53,0.00,,,0.00,WUHU216HW,2013-07-16 16:14:00,
2013-07-16 10:15:00,61.2,43.9,30.00,NW,315,7.8,13.0,53,0.00,,,0.00,WUHU216HW,2013-07-16 16:15:00,
2013-07-16 10:17:00,61.7,43.9,30.00,NNW,338,9.2,12.1,52,0.00,,,0.00,WUHU216HW,2013-07-16 16:17:00,
2013-07-16 10:19:00,62.3,44.4,30.00,NNW,338,13.4,13.4,52,0.00,,,0.00,WUHU216HW,2013-07-16 16:19:00,
2013-07-16 10:20:00,62.5,44.1,30.00,North,0,9.4,13.4,51,0.00,,,0.00,WUHU216HW,2013-07-16 16:20:00,
2013-07-16 10:22:00,63.0,44.1,30.00,NNW,338,7.2,13.4,50,0.00,,,0.00,WUHU216HW,2013-07-16 16:22:00,
2013-07-16 10:24:00,62.6,43.7,30.00,North,0,9.2,13.4,50,0.00,,,0.00,WUHU216HW,2013-07-16 16:24:00,
2013-07-16 10:25:00,62.6,44.2,30.00,NNW,338,8.3,13.4,51,0.00,,,0.00,WUHU216HW,2013-07-16 16:25:00,
2013-07-16 10:27:00,62.6,44.2,30.00,NNW,338,12.1,13.4,51,0.00,,,0.00,WUHU216HW,2013-07-16 16:27:00,
2013-07-16 10:28:00,62.5,44.1,30.00,NNW,338,13.6,13.6,51,0.00,,,0.00,WUHU216HW,2013-07-16 16:28:00,
2013-07-16 10:29:00,62.6,44.2,30.00,North,0,9.2,13.6,51,0.00,,,0.00,WUHU216HW,2013-07-16 16:29:00,
2013-07-16 10:30:00,62.6,44.2,30.00,North,0,9.2,13.6,51,0.00,,,0.00,WUHU216HW,2013-07-16 16:30:00,
2013-07-16 10:32:00,63.0,44.1,30.00,NNW,338,7.2,13.6,50,0.00,,,0.00,WUHU216HW,2013-07-16 16:32:00,
2013-07-16 10:33:00,62.8,43.9,30.00,NNW,338,9.8,13.6,50,0.00,,,0.00,WUHU216HW,2013-07-16 16:33:00,
2013-07-16 10:35:00,63.2,44.2,30.00,North,0,6.5,13.6,50,0.00,,,0.00,WUHU216HW,2013-07-16 16:35:00,
2013-07-16 10:37:00,63.7,44.1,30.00,NNW,338,8.5,13.6,49,0.00,,,0.00,WUHU216HW,2013-07-16 16:37:00,
2013-07-16 10:38:00,63.7,44.1,30.00,NNW,338,10.3,12.3,49,0.00,,,0.00,WUHU216HW,2013-07-16 16:38:00,
2013-07-16 10:40:00,64.3,44.7,30.00,NNW,338,8.1,12.3,49,0.00,,,0.00,WUHU216HW,2013-07-16 16:40:00,
2013-07-16 10:42:00,64.3,44.0,29.99,North,0,8.7,12.3,48,0.00,,,0.00,WUHU216HW,2013-07-16 16:42:00,
2013-07-16 10:43:00,64.1,43.9,29.99,North,0,9.2,12.3,48,0.00,,,0.00,WUHU216HW,2013-07-16 16:43:00,
2013-07-16 10:44:00,63.9,44.3,29.99,North,0,8.5,12.3,49,0.00,,,0.00,WUHU216HW,2013-07-16 16:44:00,
2013-07-16 10:45:00,64.1,44.5,30.00,North,0,7.2,12.3,49,0.00,,,0.00,WUHU216HW,2013-07-16 16:45:00,
2013-07-16 10:46:00,63.9,44.3,30.00,NNW,338,10.5,12.3,49,0.00,,,0.00,WUHU216HW,2013-07-16 16:46:00,
2013-07-16 10:48:00,64.1,44.5,29.99,NNW,338,10.5,11.9,49,0.00,,,0.00,WUHU216HW,2013-07-16 16:48:00,
2013-07-16 10:49:00,64.4,44.2,30.00,North,0,7.4,11.9,48,0.00,,,0.00,WUHU216HW,2013-07-16 16:49:00,
2013-07-16 10:50:00,64.6,44.4,29.99,NNW,338,9.4,11.9,48,0.00,,,0.00,WUHU216HW,2013-07-16 16:50:00,
2013-07-16 10:51:00,64.4,44.2,29.99,North,0,7.8,11.9,48,0.00,,,0.00,WUHU216HW,2013-07-16 16:51:00,
2013-07-16 10:53:00,64.4,44.2,30.00,North,0,9.4,11.9,48,0.00,,,0.00,WUHU216HW,2013-07-16 16:53:00,
2013-07-16 10:54:00,64.6,44.4,30.00,NNW,338,10.5,11.9,48,0.00,,,0.00,WUHU216HW,2013-07-16 16:54:00,
2013-07-16 10:55:00,64.4,44.2,30.00,NNW,338,6.9,11.9,48,0.00,,,0.00,WUHU216HW,2013-07-16 16:55:00,
2013-07-16 10:56:00,64.4,44.2,30.00,NNW,338,11.0,11.9,48,0.00,,,0.00,WUHU216HW,2013-07-16 16:56:00,
2013-07-16 10:58:00,64.6,44.4,30.00,NNW,338,11.9,11.9,48,0.00,,,0.00,WUHU216HW,2013-07-16 16:58:00,
2013-07-16 10:59:00,64.6,44.4,30.00,NNE,23,7.4,11.9,48,0.00,,,0.00,WUHU216HW,2013-07-16 16:59:00,
2013-07-16 11:01:00,64.4,44.2,30.00,North,0,6.9,11.9,48,0.00,,,0.00,WUHU216HW,2013-07-16 17:01:00,
2013-07-16 11:03:00,64.4,44.2,30.00,North,0,9.2,11.9,48,0.00,,,0.00,WUHU216HW,2013-07-16 17:03:00,
2013-07-16 11:04:00,64.6,44.4,30.00,NNW,338,3.6,11.9,48,0.00,,,0.00,WUHU216HW,2013-07-16 17:04:00,
2013-07-16 11:06:00,64.6,45.0,30.00,North,0,8.1,11.9,49,0.00,,,0.00,WUHU216HW,2013-07-16 17:06:00,
2013-07-16 11:08:00,65.2,44.9,30.00,North,0,8.9,11.9,48,0.00,,,0.00,WUHU216HW,2013-07-16 17:08:00,
2013-07-16 11:10:00,65.3,45.1,30.00,North,0,6.3,11.6,48,0.00,,,0.00,WUHU216HW,2013-07-16 17:10:00,
2013-07-16 11:11:00,65.5,45.3,30.00,NNW,338,4.5,11.6,48,0.00,,,0.00,WUHU216HW,2013-07-16 17:11:00,
2013-07-16 11:13:00,66.1,45.2,30.00,NNW,338,8.5,11.6,47,0.00,,,0.00,WUHU216HW,2013-07-16 17:13:00,
2013-07-16 11:15:00,66.2,44.8,30.00,North,0,6.3,11.6,46,0.00,,,0.00,WUHU216HW,2013-07-16 17:15:00,
2013-07-16 11:16:00,66.1,44.7,30.00,NNE,23,6.9,11.6,46,0.00,,,0.00,WUHU216HW,2013-07-16 17:16:00,
2013-07-16 11:17:00,66.1,44.7,30.00,NNE,23,8.1,11.6,46,0.00,,,0.00,WUHU216HW,2013-07-16 17:17:00,
2013-07-16 11:18:00,66.1,44.7,29.99,NNW,338,6.9,8.9,46,0.00,,,0.00,WUHU216HW,2013-07-16 17:18:00,
2013-07-16 11:20:00,66.1,44.7,29.99,North,0,6.3,8.5,46,0.00,,,0.00,WUHU216HW,2013-07-16 17:20:00,
2013-07-16 11:22:00,65.9,45.0,29.99,North,0,6.0,8.5,47,0.00,,,0.00,WUHU216HW,2013-07-16 17:22:00,
2013-07-16 11:23:00,65.9,45.0,29.99,NNW,338,7.8,8.5,47,0.00,,,0.00,WUHU216HW,2013-07-16 17:23:00,
2013-07-16 11:24:00,65.9,45.0,29.99,North,0,3.4,8.5,47,0.00,,,0.00,WUHU216HW,2013-07-16 17:24:00,
2013-07-16 11:25:00,66.1,44.7,29.99,NNW,338,6.9,8.5,46,0.00,,,0.00,WUHU216HW,2013-07-16 17:25:00,
2013-07-16 11:27:00,66.2,44.8,29.99,North,0,3.4,8.5,46,0.00,,,0.00,WUHU216HW,2013-07-16 17:27:00,
2013-07-16 11:28:00,66.4,44.9,29.99,North,0,4.7,8.5,46,0.00,,,0.00,WUHU216HW,2013-07-16 17:28:00,
2013-07-16 11:29:00,66.4,44.9,29.99,NNW,338,3.4,8.5,46,0.00,,,0.00,WUHU216HW,2013-07-16 17:29:00,
2013-07-16 11:30:00,66.6,45.7,29.99,NNW,338,4.0,8.5,47,0.00,,,0.00,WUHU216HW,2013-07-16 17:30:00,
2013-07-16 11:32:00,67.1,45.6,29.99,NNE,23,8.5,8.5,46,0.00,,,0.00,WUHU216HW,2013-07-16 17:32:00,
2013-07-16 11:34:00,67.3,45.2,29.99,NNW,338,4.7,8.5,45,0.00,,,0.00,WUHU216HW,2013-07-16 17:34:00,
2013-07-16 11:35:00,67.3,45.2,29.99,NNW,338,8.3,8.5,45,0.00,,,0.00,WUHU216HW,2013-07-16 17:35:00,
2013-07-16 11:37:00,67.7,45.5,29.99,NW,315,7.6,8.7,45,0.00,,,0.00,WUHU216HW,2013-07-16 17:37:00,
2013-07-16 11:39:00,68.2,45.4,29.99,NNW,338,3.6,8.7,44,0.00,,,0.00,WUHU216HW,2013-07-16 17:39:00,
2013-07-16 11:40:00,68.6,45.7,29.99,NW,315,3.4,8.7,44,0.00,,,0.00,WUHU216HW,2013-07-16 17:40:00,
2013-07-16 11:42:00,68.8,45.9,29.99,NW,315,2.2,8.7,44,0.00,,,0.00,WUHU216HW,2013-07-16 17:42:00,
2013-07-16 11:43:00,68.8,46.4,29.99,North,0,2.9,8.7,45,0.00,,,0.00,WUHU216HW,2013-07-16 17:43:00,
2013-07-16 11:44:00,69.1,46.2,29.99,NNW,338,4.3,8.7,44,0.00,,,0.00,WUHU216HW,2013-07-16 17:44:00,
2013-07-16 11:46:00,69.3,46.4,29.99,North,0,9.4,9.4,44,0.00,,,0.00,WUHU216HW,2013-07-16 17:46:00,
2013-07-16 11:48:00,69.5,46.5,29.99,NE,45,5.8,9.8,44,0.00,,,0.00,WUHU216HW,2013-07-16 17:48:00,
2013-07-16 11:49:00,69.5,46.5,29.99,ENE,68,6.0,9.8,44,0.00,,,0.00,WUHU216HW,2013-07-16 17:49:00,
2013-07-16 11:51:00,69.8,46.8,29.99,North,0,3.8,9.8,44,0.00,,,0.00,WUHU216HW,2013-07-16 17:51:00,
2013-07-16 11:53:00,70.0,46.5,29.99,NW,315,3.1,9.8,43,0.00,,,0.00,WUHU216HW,2013-07-16 17:53:00,
2013-07-16 11:54:00,70.4,46.7,29.99,North,0,2.7,9.8,43,0.00,,,0.00,WUHU216HW,2013-07-16 17:54:00,
2013-07-16 11:55:00,70.4,47.4,29.99,North,0,4.5,9.8,44,0.00,,,0.00,WUHU216HW,2013-07-16 17:55:00,
2013-07-16 11:56:00,70.6,46.9,29.99,ESE,113,4.0,9.8,43,0.00,,,0.00,WUHU216HW,2013-07-16 17:56:00,
2013-07-16 11:58:00,70.7,46.4,29.98,North,0,2.5,7.2,42,0.00,,,0.00,WUHU216HW,2013-07-16 17:58:00,
2013-07-16 11:59:00,70.7,47.1,29.99,NNE,23,5.8,7.2,43,0.00,,,0.00,WUHU216HW,2013-07-16 17:59:00,
2013-07-16 12:00:00,70.7,47.1,29.99,NNE,23,5.8,7.2,43,0.00,,,0.00,WUHU216HW,2013-07-16 18:00:00,
2013-07-16 12:01:00,70.9,47.3,29.99,East,90,6.3,7.2,43,0.00,,,0.00,WUHU216HW,2013-07-16 18:01:00,
2013-07-16 12:03:00,71.3,47.5,29.99,SSE,158,2.5,7.2,43,0.00,,,0.00,WUHU216HW,2013-07-16 18:03:00,
2013-07-16 12:05:00,71.6,48.4,29.98,South,180,0.9,7.2,44,0.00,,,0.00,WUHU216HW,2013-07-16 18:05:00,
2013-07-16 12:06:00,72.4,48.5,29.98,East,90,6.3,6.3,43,0.00,,,0.00,WUHU216HW,2013-07-16 18:06:00,
2013-07-16 12:08:00,73.1,48.6,29.98,SE,135,5.4,7.6,42,0.00,,,0.00,WUHU216HW,2013-07-16 18:08:00,
2013-07-16 12:10:00,73.8,48.1,29.98,NE,45,3.4,7.6,40,0.00,,,0.00,WUHU216HW,2013-07-16 18:10:00,
2013-07-16 12:11:00,74.2,49.0,29.98,SE,135,3.8,7.6,41,0.00,,,0.00,WUHU216HW,2013-07-16 18:11:00,
2013-07-16 12:14:00,74.9,49.0,29.98,SSW,203,6.3,7.6,40,0.00,,,0.00,WUHU216HW,2013-07-16 18:14:00,
2013-07-16 12:15:00,75.6,49.7,29.98,WNW,293,2.2,7.6,40,0.00,,,0.00,WUHU216HW,2013-07-16 18:15:00,
2013-07-16 12:16:00,75.8,49.1,29.98,SSE,158,4.0,7.6,39,0.00,,,0.00,WUHU216HW,2013-07-16 18:16:00,
2013-07-16 12:17:00,76.0,49.2,29.98,SE,135,8.5,8.5,39,0.00,,,0.00,WUHU216HW,2013-07-16 18:17:00,
2013-07-16 12:19:00,76.9,50.1,29.98,South,180,4.0,8.5,39,0.00,,,0.00,WUHU216HW,2013-07-16 18:19:00,
2013-07-16 12:20:00,77.2,50.3,29.98,SSW,203,5.8,8.5,39,0.00,,,0.00,WUHU216HW,2013-07-16 18:20:00,
2013-07-16 12:21:00,77.2,50.3,29.98,SSE,158,5.6,8.5,39,0.00,,,0.00,WUHU216HW,2013-07-16 18:21:00,
2013-07-16 12:22:00,77.6,49.1,29.98,SSE,158,10.5,10.5,37,0.00,,,0.00,WUHU216HW,2013-07-16 18:22:00,
2013-07-16 12:24:00,77.9,49.4,29.98,SE,135,8.3,10.5,37,0.00,,,0.00,WUHU216HW,2013-07-16 18:24:00,
2013-07-16 12:25:00,78.3,49.0,29.98,SE,135,7.4,10.5,36,0.00,,,0.00,WUHU216HW,2013-07-16 18:25:00,
2013-07-16 12:26:00,78.5,49.1,29.98,SE,135,7.4,10.5,36,0.00,,,0.00,WUHU216HW,2013-07-16 18:26:00,
2013-07-16 12:28:00,78.7,49.3,29.98,SE,135,4.3,10.5,36,0.00,,,0.00,WUHU216HW,2013-07-16 18:28:00,
2013-07-16 12:29:00,79.0,48.9,29.98,SE,135,8.7,10.5,35,0.00,,,0.00,WUHU216HW,2013-07-16 18:29:00,
2013-07-16 12:31:00,79.2,48.2,29.98,SE,135,5.4,10.5,34,0.00,,,0.00,WUHU216HW,2013-07-16 18:31:00,
2013-07-16 12:33:00,79.6,49.3,29.98,SE,135,3.8,10.5,35,0.00,,,0.00,WUHU216HW,2013-07-16 18:33:00,
2013-07-16 12:34:00,79.7,48.7,29.98,ESE,113,4.9,9.2,34,0.00,,,0.00,WUHU216HW,2013-07-16 18:34:00,
2013-07-16 12:36:00,79.7,48.7,29.97,SE,135,7.2,8.7,34,0.00,,,0.00,WUHU216HW,2013-07-16 18:36:00,
2013-07-16 12:38:00,79.7,48.0,29.97,ESE,113,7.8,9.4,33,0.00,,,0.00,WUHU216HW,2013-07-16 18:38:00,
2013-07-16 12:40:00,79.9,48.9,29.97,ESE,113,6.0,9.4,34,0.00,,,0.00,WUHU216HW,2013-07-16 18:40:00,
2013-07-16 12:41:00,79.9,48.2,29.97,SE,135,8.7,9.8,33,0.00,,,0.00,WUHU216HW,2013-07-16 18:41:00,
2013-07-16 12:43:00,80.3,49.2,29.97,SSE,158,4.7,9.8,34,0.00,,,0.00,WUHU216HW,2013-07-16 18:43:00,
2013-07-16 12:45:00,80.5,49.4,29.97,South,180,4.7,9.8,34,0.00,,,0.00,WUHU216HW,2013-07-16 18:45:00,
2013-07-16 12:46:00,80.5,47.8,29.97,ESE,113,12.5,12.5,32,0.00,,,0.00,WUHU216HW,2013-07-16 18:46:00,
2013-07-16 12:47:00,80.3,47.7,29.97,SE,135,11.4,12.5,32,0.00,,,0.00,WUHU216HW,2013-07-16 18:47:00,
2013-07-16 12:49:00,80.1,48.2,29.97,SSE,158,5.6,12.5,33,0.00,,,0.00,WUHU216HW,2013-07-16 18:49:00,
2013-07-16 12:50:00,80.1,49.1,29.97,SSE,158,2.9,12.5,34,0.00,,,0.00,WUHU216HW,2013-07-16 18:50:00,
2013-07-16 12:51:00,80.1,48.2,29.97,East,90,2.0,12.5,33,0.00,,,0.00,WUHU216HW,2013-07-16 18:51:00,
2013-07-16 12:52:00,80.1,48.2,29.97,NE,45,2.5,12.5,33,0.00,,,0.00,WUHU216HW,2013-07-16 18:52:00,
2013-07-16 12:54:00,80.3,48.4,29.97,ESE,113,9.4,12.8,33,0.00,,,0.00,WUHU216HW,2013-07-16 18:54:00,
2013-07-16 12:55:00,80.5,48.6,29.97,SSE,158,7.6,12.8,33,0.00,,,0.00,WUHU216HW,2013-07-16 18:55:00,
2013-07-16 12:56:00,80.6,48.8,29.97,SSE,158,4.0,12.8,33,0.00,,,0.00,WUHU216HW,2013-07-16 18:56:00,
2013-07-16 12:57:00,80.8,48.9,29.97,SE,135,2.5,12.8,33,0.00,,,0.00,WUHU216HW,2013-07-16 18:57:00,
2013-07-16 12:59:00,81.2,48.4,29.97,ESE,113,0.4,12.8,32,0.00,,,0.00,WUHU216HW,2013-07-16 18:59:00,
2013-07-16 13:00:00,81.0,48.2,29.97,ENE,68,1.6,12.8,32,0.00,,,0.00,WUHU216HW,2013-07-16 19:00:00,
2013-07-16 13:02:00,81.0,49.1,29.97,SSW,203,2.2,12.8,33,0.00,,,0.00,WUHU216HW,2013-07-16 19:02:00,
2013-07-16 13:05:00,81.2,49.2,29.96,South,180,6.7,11.4,33,0.00,,,0.00,WUHU216HW,2013-07-16 19:05:00,
2013-07-16 13:06:00,81.2,49.2,29.96,South,180,7.4,11.4,33,0.00,,,0.00,WUHU216HW,2013-07-16 19:06:00,
2013-07-16 13:07:00,81.5,49.5,29.96,SSE,158,7.6,11.4,33,0.00,,,0.00,WUHU216HW,2013-07-16 19:07:00,
2013-07-16 13:10:00,81.7,48.9,29.96,SSE,158,6.7,11.4,32,0.00,,,0.00,WUHU216HW,2013-07-16 19:10:00,
2013-07-16 13:11:00,81.7,48.9,29.96,SSE,158,6.9,11.4,32,0.00,,,0.00,WUHU216HW,2013-07-16 19:11:00,
2013-07-16 13:12:00,81.7,48.9,29.96,SSE,158,4.7,11.4,32,0.00,,,0.00,WUHU216HW,2013-07-16 19:12:00,
2013-07-16 13:16:00,81.5,48.7,29.96,SE,135,8.1,8.3,32,0.00,,,0.00,WUHU216HW,2013-07-16 19:16:00,
2013-07-16 13:17:00,81.5,48.7,29.96,ESE,113,6.9,8.3,32,0.00,,,0.00,WUHU216HW,2013-07-16 19:17:00,
2013-07-16 13:21:00,81.0,49.1,29.96,SE,135,4.0,8.3,33,0.00,,,0.00,WUHU216HW,2013-07-16 19:21:00,
2013-07-16 13:22:00,81.0,48.2,29.96,SE,135,3.4,8.3,32,0.00,,,0.00,WUHU216HW,2013-07-16 19:22:00,
2013-07-16 13:26:00,80.6,48.0,29.96,East,90,6.7,8.1,32,0.00,,,0.00,WUHU216HW,2013-07-16 19:26:00,
2013-07-16 13:28:00,80.5,48.6,29.96,East,90,4.7,7.8,33,0.00,,,0.00,WUHU216HW,2013-07-16 19:28:00,
2013-07-16 13:31:00,80.5,48.6,29.96,SE,135,4.9,7.8,33,0.00,,,0.00,WUHU216HW,2013-07-16 19:31:00,
2013-07-16 13:32:00,80.5,48.6,29.96,SSE,158,7.6,7.8,33,0.00,,,0.00,WUHU216HW,2013-07-16 19:32:00,
2013-07-16 13:33:00,80.5,48.6,29.96,SSE,158,5.1,7.8,33,0.00,,,0.00,WUHU216HW,2013-07-16 19:33:00,
2013-07-16 13:37:00,80.6,48.0,29.96,ENE,68,4.9,7.6,32,0.00,,,0.00,WUHU216HW,2013-07-16 19:37:00,
2013-07-16 13:38:00,80.5,47.8,29.96,ENE,68,4.7,7.6,32,0.00,,,0.00,WUHU216HW,2013-07-16 19:38:00,
2013-07-16 13:42:00,80.6,49.5,29.95,SSE,158,1.6,7.6,34,0.00,,,0.00,WUHU216HW,2013-07-16 19:42:00,
2013-07-16 13:43:00,80.8,48.9,29.95,SSE,158,1.6,6.9,33,0.00,,,0.00,WUHU216HW,2013-07-16 19:43:00,
2013-07-16 13:44:00,81.2,49.2,29.95,East,90,6.3,6.9,33,0.00,,,0.00,WUHU216HW,2013-07-16 19:44:00,
2013-07-16 13:47:00,81.4,48.6,29.95,ENE,68,4.5,8.5,32,0.00,,,0.00,WUHU216HW,2013-07-16 19:47:00,
2013-07-16 13:48:00,81.5,48.7,29.95,NNW,338,1.3,8.5,32,0.00,,,0.00,WUHU216HW,2013-07-16 19:48:00,
2013-07-16 13:49:00,81.7,48.1,29.95,North,0,1.6,8.5,31,0.00,,,0.00,WUHU216HW,2013-07-16 19:49:00,
2013-07-16 13:52:00,80.8,48.2,29.95,ESE,113,4.0,8.5,32,0.00,,,0.00,WUHU216HW,2013-07-16 19:52:00,
2013-07-16 13:53:00,80.6,48.0,29.95,East,90,6.5,9.2,32,0.00,,,0.00,WUHU216HW,2013-07-16 19:53:00,
2013-07-16 13:54:00,80.6,48.0,29.95,ESE,113,6.0,9.2,32,0.00,,,0.00,WUHU216HW,2013-07-16 19:54:00,
2013-07-16 13:57:00,80.5,48.6,29.95,SSE,158,5.8,9.2,33,0.00,,,0.00,WUHU216HW,2013-07-16 19:57:00,
2013-07-16 13:58:00,80.6,48.8,29.95,East,90,6.9,9.2,33,0.00,,,0.00,WUHU216HW,2013-07-16 19:58:00,
2013-07-16 13:59:00,80.8,48.9,29.95,ESE,113,4.9,9.2,33,0.00,,,0.00,WUHU216HW,2013-07-16 19:59:00,
2013-07-16 14:02:00,82.4,49.5,29.96,ESE,113,4.3,12.3,32,0.00,,,0.00,WUHU216HW,2013-07-16 20:02:00,
2013-07-16 14:03:00,82.6,49.6,29.95,SSW,203,5.1,12.3,32,0.00,,,0.00,WUHU216HW,2013-07-16 20:03:00,
2013-07-16 14:04:00,83.0,50.0,29.95,SSE,158,10.1,12.3,32,0.00,,,0.00,WUHU216HW,2013-07-16 20:04:00,
2013-07-16 14:05:00,83.2,49.3,29.95,South,180,6.5,12.3,31,0.00,,,0.00,WUHU216HW,2013-07-16 20:05:00,
2013-07-16 14:08:00,84.4,48.6,29.96,SE,135,5.1,12.3,29,0.00,,,0.00,WUHU216HW,2013-07-16 20:08:00,
2013-07-16 14:09:00,84.4,49.7,29.96,SE,135,9.2,12.3,30,0.00,,,0.00,WUHU216HW,2013-07-16 20:09:00,
2013-07-16 14:10:00,84.8,49.0,29.96,ESE,113,5.6,12.3,29,0.00,,,0.00,WUHU216HW,2013-07-16 20:10:00,
2013-07-16 14:13:00,85.1,49.2,29.96,ESE,113,6.3,10.1,29,0.00,,,0.00,WUHU216HW,2013-07-16 20:13:00,
2013-07-16 14:14:00,85.3,50.5,29.96,ESE,113,7.4,10.1,30,0.00,,,0.00,WUHU216HW,2013-07-16 20:14:00,
2013-07-16 14:15:00,85.5,49.6,29.96,ESE,113,8.7,9.8,29,0.00,,,0.00,WUHU216HW,2013-07-16 20:15:00,
2013-07-16 14:18:00,86.0,50.0,29.95,ESE,113,6.5,9.8,29,0.00,,,0.00,WUHU216HW,2013-07-16 20:18:00,
2013-07-16 14:19:00,86.0,49.0,29.95,SE,135,6.0,9.8,28,0.00,,,0.00,WUHU216HW,2013-07-16 20:19:00,
2013-07-16 14:20:00,86.0,49.0,29.95,SE,135,6.0,8.7,28,0.00,,,0.00,WUHU216HW,2013-07-16 20:20:00,
2013-07-16 14:23:00,86.2,49.2,29.95,SE,135,6.3,9.8,28,0.00,,,0.00,WUHU216HW,2013-07-16 20:23:00,
2013-07-16 14:24:00,86.2,49.2,29.95,SSE,158,6.3,9.8,28,0.00,,,0.00,WUHU216HW,2013-07-16 20:24:00,
2013-07-16 14:25:00,86.4,49.2,29.95,ESE,113,5.4,9.8,28,0.00,,,0.00,WUHU216HW,2013-07-16 20:25:00,
2013-07-16 14:28:00,86.9,49.7,29.95,SE,135,7.6,9.8,28,0.00,,,0.00,WUHU216HW,2013-07-16 20:28:00,
2013-07-16 14:29:00,87.3,47.9,29.95,SSE,158,9.8,9.8,26,0.00,,,0.00,WUHU216HW,2013-07-16 20:29:00,
2013-07-16 14:30:00,87.3,49.0,29.95,SE,135,6.0,9.8,27,0.00,,,0.00,WUHU216HW,2013-07-16 20:30:00,
2013-07-16 14:31:00,87.5,48.0,29.95,ESE,113,9.8,9.8,26,0.00,,,0.00,WUHU216HW,2013-07-16 20:31:00,
2013-07-16 14:33:00,87.5,50.1,29.95,East,90,4.9,9.8,28,0.00,,,0.00,WUHU216HW,2013-07-16 20:33:00,
2013-07-16 14:34:00,87.7,49.2,29.95,ESE,113,6.0,9.8,27,0.00,,,0.00,WUHU216HW,2013-07-16 20:34:00,
2013-07-16 14:35:00,87.7,50.3,29.95,SE,135,5.6,9.8,28,0.00,,,0.00,WUHU216HW,2013-07-16 20:35:00,
2013-07-16 14:36:00,87.8,50.4,29.95,SSE,158,6.3,9.8,28,0.00,,,0.00,WUHU216HW,2013-07-16 20:36:00,
2013-07-16 14:39:00,88.0,48.5,29.95,ESE,113,6.5,9.8,26,0.00,,,0.00,WUHU216HW,2013-07-16 20:39:00,
2013-07-16 14:40:00,88.0,48.5,29.95,South,180,9.2,9.8,26,0.00,,,0.00,WUHU216HW,2013-07-16 20:40:00,
2013-07-16 14:41:00,88.2,48.6,29.95,SSE,158,12.5,12.5,26,0.00,,,0.00,WUHU216HW,2013-07-16 20:41:00,
2013-07-16 14:44:00,88.2,47.5,29.95,South,180,12.1,12.5,25,0.00,,,0.00,WUHU216HW,2013-07-16 20:44:00,
2013-07-16 14:45:00,88.2,48.6,29.94,South,180,4.9,12.5,26,0.00,,,0.00,WUHU216HW,2013-07-16 20:45:00,
2013-07-16 14:46:00,88.2,48.6,29.95,ESE,113,4.7,12.5,26,0.00,,,0.00,WUHU216HW,2013-07-16 20:46:00,
2013-07-16 14:49:00,88.4,47.7,29.95,ESE,113,8.5,12.5,25,0.00,,,0.00,WUHU216HW,2013-07-16 20:49:00,
2013-07-16 14:50:00,88.4,47.7,29.95,ESE,113,7.6,12.5,25,0.00,,,0.00,WUHU216HW,2013-07-16 20:50:00,
2013-07-16 14:51:00,88.2,47.5,29.94,SSE,158,8.5,12.5,25,0.00,,,0.00,WUHU216HW,2013-07-16 20:51:00,
2013-07-16 14:54:00,88.4,47.7,29.95,ENE,68,2.0,10.5,25,0.00,,,0.00,WUHU216HW,2013-07-16 20:54:00,
2013-07-16 14:55:00,88.2,47.5,29.95,ESE,113,8.3,10.3,25,0.00,,,0.00,WUHU216HW,2013-07-16 20:55:00,
2013-07-16 14:56:00,88.2,48.6,29.95,East,90,4.3,10.3,26,0.00,,,0.00,WUHU216HW,2013-07-16 20:56:00,
2013-07-16 15:00:00,88.0,47.4,29.94,SE,135,9.2,9.6,25,0.00,,,0.00,WUHU216HW,2013-07-16 21:00:00,
2013-07-16 15:01:00,88.2,47.5,29.94,East,90,6.9,9.2,25,0.00,,,0.00,WUHU216HW,2013-07-16 21:01:00,
2013-07-16 15:02:00,88.2,47.5,29.94,East,90,8.1,9.6,25,0.00,,,0.00,WUHU216HW,2013-07-16 21:02:00,
2013-07-16 15:05:00,88.4,47.7,29.94,SE,135,11.4,11.4,25,0.00,,,0.00,WUHU216HW,2013-07-16 21:05:00,
2013-07-16 15:07:00,88.6,47.9,29.94,SE,135,10.5,12.3,25,0.00,,,0.00,WUHU216HW,2013-07-16 21:07:00,
2013-07-16 15:10:00,88.6,47.9,29.94,SE,135,5.8,12.3,25,0.00,,,0.00,WUHU216HW,2013-07-16 21:10:00,
2013-07-16 15:11:00,88.7,48.0,29.94,SE,135,8.5,12.3,25,0.00,,,0.00,WUHU216HW,2013-07-16 21:11:00,
2013-07-16 15:12:00,88.9,47.1,29.94,SE,135,6.7,12.3,24,0.00,,,0.00,WUHU216HW,2013-07-16 21:12:00,
2013-07-16 15:15:00,89.1,47.3,29.94,SSE,158,10.7,11.2,24,0.00,,,0.00,WUHU216HW,2013-07-16 21:15:00,
2013-07-16 15:16:00,89.1,48.3,29.94,SSE,158,11.6,11.6,25,0.00,,,0.00,WUHU216HW,2013-07-16 21:16:00,
2013-07-16 15:17:00,89.1,47.3,29.94,SE,135,5.1,11.6,24,0.00,,,0.00,WUHU216HW,2013-07-16 21:17:00,
2013-07-16 15:18:00,89.1,48.3,29.93,SSE,158,6.3,11.6,25,0.00,,,0.00,WUHU216HW,2013-07-16 21:18:00,
2013-07-16 15:21:00,89.3,47.4,29.94,ESE,113,7.2,11.6,24,0.00,,,0.00,WUHU216HW,2013-07-16 21:21:00,
2013-07-16 15:22:00,89.3,47.4,29.94,SE,135,9.4,11.6,24,0.00,,,0.00,WUHU216HW,2013-07-16 21:22:00,
2013-07-16 15:23:00,89.3,47.4,29.93,ESE,113,6.9,11.6,24,0.00,,,0.00,WUHU216HW,2013-07-16 21:23:00,
2013-07-16 15:26:00,89.6,47.7,29.93,SSE,158,9.8,11.6,24,0.00,,,0.00,WUHU216HW,2013-07-16 21:26:00,
2013-07-16 15:27:00,89.6,47.7,29.93,SSE,158,5.1,12.8,24,0.00,,,0.00,WUHU216HW,2013-07-16 21:27:00,
2013-07-16 15:29:00,89.8,46.8,29.93,ESE,113,7.4,12.8,23,0.00,,,0.00,WUHU216HW,2013-07-16 21:29:00,
2013-07-16 15:31:00,89.3,46.4,29.93,ESE,113,8.9,12.8,23,0.00,,,0.00,WUHU216HW,2013-07-16 21:31:00,
2013-07-16 15:32:00,89.1,47.3,29.93,SE,135,9.6,12.8,24,0.00,,,0.00,WUHU216HW,2013-07-16 21:32:00,
2013-07-16 15:34:00,89.1,48.3,29.93,SSE,158,5.4,12.8,25,0.00,,,0.00,WUHU216HW,2013-07-16 21:34:00,
2013-07-16 15:36:00,89.5,47.5,29.93,ESE,113,8.1,12.8,24,0.00,,,0.00,WUHU216HW,2013-07-16 21:36:00,
2013-07-16 15:37:00,89.6,48.8,29.93,SSE,158,7.4,9.6,25,0.00,,,0.00,WUHU216HW,2013-07-16 21:37:00,
2013-07-16 15:39:00,90.0,46.9,29.93,ESE,113,9.2,13.6,23,0.00,,,0.00,WUHU216HW,2013-07-16 21:39:00,
2013-07-16 15:41:00,90.0,48.0,29.93,South,180,9.2,13.6,24,0.00,,,0.00,WUHU216HW,2013-07-16 21:41:00,
2013-07-16 15:42:00,90.0,49.1,29.93,SSE,158,9.4,13.6,25,0.00,,,0.00,WUHU216HW,2013-07-16 21:42:00,
2013-07-16 15:43:00,90.0,46.9,29.93,SE,135,10.5,13.6,23,0.00,,,0.00,WUHU216HW,2013-07-16 21:43:00,
2013-07-16 15:44:00,89.8,46.8,29.93,SE,135,6.9,13.6,23,0.00,,,0.00,WUHU216HW,2013-07-16 21:44:00,
2013-07-16 15:46:00,89.6,47.7,29.93,SSE,158,6.9,13.6,24,0.00,,,0.00,WUHU216HW,2013-07-16 21:46:00,
2013-07-16 15:47:00,89.6,46.6,29.93,ESE,113,9.6,13.6,23,0.00,,,0.00,WUHU216HW,2013-07-16 21:47:00,
2013-07-16 15:48:00,89.6,46.6,29.93,SE,135,8.1,13.6,23,0.00,,,0.00,WUHU216HW,2013-07-16 21:48:00,
2013-07-16 15:49:00,89.6,47.7,29.93,SSE,158,6.5,12.1,24,0.00,,,0.00,WUHU216HW,2013-07-16 21:49:00,
2013-07-16 15:51:00,89.6,46.6,29.93,ESE,113,9.8,12.1,23,0.00,,,0.00,WUHU216HW,2013-07-16 21:51:00,
2013-07-16 15:52:00,89.6,46.6,29.93,ESE,113,9.6,12.1,23,0.00,,,0.00,WUHU216HW,2013-07-16 21:52:00,
2013-07-16 15:53:00,89.6,46.6,29.93,ESE,113,12.1,13.2,23,0.00,,,0.00,WUHU216HW,2013-07-16 21:53:00,
2013-07-16 15:54:00,89.5,47.5,29.93,East,90,8.1,13.2,24,0.00,,,0.00,WUHU216HW,2013-07-16 21:54:00,
2013-07-16 15:56:00,89.6,47.7,29.93,SE,135,8.5,13.2,24,0.00,,,0.00,WUHU216HW,2013-07-16 21:56:00,
2013-07-16 15:57:00,89.6,47.7,29.93,SE,135,9.4,13.2,24,0.00,,,0.00,WUHU216HW,2013-07-16 21:57:00,
2013-07-16 15:58:00,89.6,47.7,29.93,ESE,113,8.5,13.2,24,0.00,,,0.00,WUHU216HW,2013-07-16 21:58:00,
2013-07-16 16:00:00,90.0,48.0,29.93,SE,135,6.7,13.2,24,0.00,,,0.00,WUHU216HW,2013-07-16 22:00:00,
2013-07-16 16:02:00,90.4,48.3,29.93,SSE,158,10.5,13.2,24,0.00,,,0.00,WUHU216HW,2013-07-16 22:02:00,
2013-07-16 16:03:00,90.5,48.4,29.93,SE,135,5.6,12.1,24,0.00,,,0.00,WUHU216HW,2013-07-16 22:03:00,
2013-07-16 16:05:00,90.7,47.5,29.93,South,180,12.8,12.8,23,0.00,,,0.00,WUHU216HW,2013-07-16 22:05:00,
2013-07-16 16:07:00,90.7,47.5,29.93,SSE,158,9.2,12.8,23,0.00,,,0.00,WUHU216HW,2013-07-16 22:07:00,
2013-07-16 16:08:00,90.7,47.5,29.93,ESE,113,8.7,12.8,23,0.00,,,0.00,WUHU216HW,2013-07-16 22:08:00,
2013-07-16 16:09:00,90.7,48.6,29.93,SE,135,8.9,12.8,24,0.00,,,0.00,WUHU216HW,2013-07-16 22:09:00,
2013-07-16 16:10:00,90.7,47.5,29.93,ESE,113,9.8,12.8,23,0.00,,,0.00,WUHU216HW,2013-07-16 22:10:00,
2013-07-16 16:12:00,90.5,47.3,29.92,SE,135,6.3,12.8,23,0.00,,,0.00,WUHU216HW,2013-07-16 22:12:00,
2013-07-16 16:13:00,90.7,47.5,29.92,SE,135,10.7,12.8,23,0.00,,,0.00,WUHU216HW,2013-07-16 22:13:00,
2013-07-16 16:14:00,90.7,47.5,29.92,SE,135,10.7,12.8,23,0.00,,,0.00,WUHU216HW,2013-07-16 22:14:00,
2013-07-16 16:15:00,90.7,47.5,29.92,SSE,158,7.8,12.8,23,0.00,,,0.00,WUHU216HW,2013-07-16 22:15:00,
2013-07-16 16:17:00,90.5,47.3,29.92,SSE,158,8.7,13.0,23,0.00,,,0.00,WUHU216HW,2013-07-16 22:17:00,
2013-07-16 16:18:00,90.5,47.3,29.92,SSE,158,10.5,13.0,23,0.00,,,0.00,WUHU216HW,2013-07-16 22:18:00,
2013-07-16 16:19:00,90.5,47.3,29.92,SE,135,6.7,13.0,23,0.00,,,0.00,WUHU216HW,2013-07-16 22:19:00,
2013-07-16 16:20:00,90.4,47.3,29.92,SE,135,12.3,13.6,23,0.00,,,0.00,WUHU216HW,2013-07-16 22:20:00,
2013-07-16 16:23:00,90.4,46.2,29.92,SE,135,18.6,18.6,22,0.00,,,0.00,WUHU216HW,2013-07-16 22:23:00,
2013-07-16 16:24:00,90.0,46.9,29.92,ESE,113,13.4,18.6,23,0.00,,,0.00,WUHU216HW,2013-07-16 22:24:00,
2013-07-16 16:25:00,89.8,46.8,29.92,SE,135,12.1,18.6,23,0.00,,,0.00,WUHU216HW,2013-07-16 22:25:00,
2013-07-16 16:28:00,89.6,46.6,29.92,SE,135,13.2,18.6,23,0.00,,,0.00,WUHU216HW,2013-07-16 22:28:00,
2013-07-16 16:29:00,89.6,46.6,29.92,SSE,158,10.7,18.6,23,0.00,,,0.00,WUHU216HW,2013-07-16 22:29:00,
2013-07-16 16:30:00,89.5,46.4,29.92,SSE,158,12.3,18.6,23,0.00,,,0.00,WUHU216HW,2013-07-16 22:30:00,
2013-07-16 16:31:00,89.5,46.4,29.92,SSE,158,11.2,18.6,23,0.00,,,0.00,WUHU216HW,2013-07-16 22:31:00,
2013-07-16 16:33:00,89.5,46.4,29.92,ENE,68,7.6,16.3,23,0.00,,,0.00,WUHU216HW,2013-07-16 22:33:00,
2013-07-16 16:34:00,89.5,46.4,29.92,SE,135,11.4,14.8,23,0.00,,,0.00,WUHU216HW,2013-07-16 22:34:00,
2013-07-16 16:35:00,89.5,46.4,29.92,ESE,113,11.0,14.8,23,0.00,,,0.00,WUHU216HW,2013-07-16 22:35:00,
2013-07-16 16:36:00,89.6,46.6,29.92,SE,135,12.8,14.8,23,0.00,,,0.00,WUHU216HW,2013-07-16 22:36:00,
2013-07-16 16:38:00,89.6,46.6,29.92,SSE,158,9.4,14.8,23,0.00,,,0.00,WUHU216HW,2013-07-16 22:38:00,
2013-07-16 16:39:00,89.6,46.6,29.92,SE,135,10.3,15.0,23,0.00,,,0.00,WUHU216HW,2013-07-16 22:39:00,
2013-07-16 16:40:00,89.6,46.6,29.92,SE,135,14.1,15.0,23,0.00,,,0.00,WUHU216HW,2013-07-16 22:40:00,
2013-07-16 16:41:00,89.6,46.6,29.92,SSE,158,8.5,15.0,23,0.00,,,0.00,WUHU216HW,2013-07-16 22:41:00,
2013-07-16 16:43:00,89.5,47.5,29.91,SE,135,9.2,15.0,24,0.00,,,0.00,WUHU216HW,2013-07-16 22:43:00,
2013-07-16 16:44:00,89.5,47.5,29.92,South,180,12.3,15.0,24,0.00,,,0.00,WUHU216HW,2013-07-16 22:44:00,
2013-07-16 16:45:00,89.3,47.4,29.92,SE,135,15.7,15.7,24,0.00,,,0.00,WUHU216HW,2013-07-16 22:45:00,
2013-07-16 16:46:00,89.5,47.5,29.91,SSW,203,10.7,15.7,24,0.00,,,0.00,WUHU216HW,2013-07-16 22:46:00,
2013-07-16 16:49:00,89.3,47.4,29.91,SSE,158,11.0,15.7,24,0.00,,,0.00,WUHU216HW,2013-07-16 22:49:00,
2013-07-16 16:50:00,89.1,47.3,29.91,SSE,158,9.6,15.7,24,0.00,,,0.00,WUHU216HW,2013-07-16 22:50:00,
2013-07-16 16:51:00,89.1,47.3,29.91,SE,135,7.2,15.7,24,0.00,,,0.00,WUHU216HW,2013-07-16 22:51:00,
2013-07-16 16:54:00,88.9,47.1,29.91,SSE,158,13.0,15.7,24,0.00,,,0.00,WUHU216HW,2013-07-16 22:54:00,
2013-07-16 16:55:00,88.9,47.1,29.91,SE,135,12.1,14.5,24,0.00,,,0.00,WUHU216HW,2013-07-16 22:55:00,
2013-07-16 16:56:00,88.9,47.1,29.91,SSE,158,7.4,14.5,24,0.00,,,0.00,WUHU216HW,2013-07-16 22:56:00,
2013-07-16 16:59:00,88.7,48.0,29.91,ESE,113,14.3,16.3,25,0.00,,,0.00,WUHU216HW,2013-07-16 22:59:00,
2013-07-16 17:00:00,88.6,47.9,29.91,SE,135,14.8,17.2,25,0.00,,,0.00,WUHU216HW,2013-07-16 23:00:00,
2013-07-16 17:01:00,88.6,47.9,29.91,SE,135,11.9,17.2,25,0.00,,,0.00,WUHU216HW,2013-07-16 23:01:00,
2013-07-16 17:04:00,88.6,47.9,29.91,SE,135,16.8,17.2,25,0.00,,,0.00,WUHU216HW,2013-07-16 23:04:00,
2013-07-16 17:05:00,88.4,47.7,29.91,SSE,158,13.4,17.2,25,0.00,,,0.00,WUHU216HW,2013-07-16 23:05:00,
2013-07-16 17:06:00,88.4,47.7,29.91,SSE,158,11.4,17.2,25,0.00,,,0.00,WUHU216HW,2013-07-16 23:06:00,
2013-07-16 17:09:00,88.4,47.7,29.91,SSE,158,15.7,17.4,25,0.00,,,0.00,WUHU216HW,2013-07-16 23:09:00,
2013-07-16 17:10:00,88.4,47.7,29.91,SE,135,13.2,17.4,25,0.00,,,0.00,WUHU216HW,2013-07-16 23:10:00,
2013-07-16 17:11:00,88.4,47.7,29.91,SE,135,13.4,17.4,25,0.00,,,0.00,WUHU216HW,2013-07-16 23:11:00,
2013-07-16 17:14:00,88.2,46.5,29.91,SE,135,13.2,17.4,24,0.00,,,0.00,WUHU216HW,2013-07-16 23:14:00,
2013-07-16 17:15:00,88.2,46.5,29.91,SSE,158,13.0,17.4,24,0.00,,,0.00,WUHU216HW,2013-07-16 23:15:00,
2013-07-16 17:16:00,88.4,47.7,29.91,SSE,158,12.8,17.4,25,0.00,,,0.00,WUHU216HW,2013-07-16 23:16:00,
2013-07-16 17:17:00,88.4,47.7,29.91,SSE,158,10.5,17.4,25,0.00,,,0.00,WUHU216HW,2013-07-16 23:17:00,
2013-07-16 17:19:00,88.2,47.5,29.91,SE,135,10.7,16.3,25,0.00,,,0.00,WUHU216HW,2013-07-16 23:19:00,
2013-07-16 17:20:00,88.2,46.5,29.91,SE,135,14.5,16.3,24,0.00,,,0.00,WUHU216HW,2013-07-16 23:20:00,
2013-07-16 17:21:00,88.2,46.5,29.91,SSE,158,11.9,15.7,24,0.00,,,0.00,WUHU216HW,2013-07-16 23:21:00,
2013-07-16 17:22:00,88.2,47.5,29.91,SE,135,12.5,15.7,25,0.00,,,0.00,WUHU216HW,2013-07-16 23:22:00,
2013-07-16 17:25:00,88.2,46.5,29.91,SE,135,15.2,15.2,24,0.00,,,0.00,WUHU216HW,2013-07-16 23:25:00,
2013-07-16 17:27:00,88.0,47.4,29.91,SSE,158,10.5,15.7,25,0.00,,,0.00,WUHU216HW,2013-07-16 23:27:00,
2013-07-16 17:30:00,87.8,46.2,29.91,SE,135,14.1,15.7,24,0.00,,,0.00,WUHU216HW,2013-07-16 23:30:00,
2013-07-16 17:32:00,87.8,46.2,29.91,SE,135,12.5,15.7,24,0.00,,,0.00,WUHU216HW,2013-07-16 23:32:00,
2013-07-16 17:35:00,87.8,46.2,29.91,SE,135,12.8,16.3,24,0.00,,,0.00,WUHU216HW,2013-07-16 23:35:00,
2013-07-16 17:36:00,88.0,46.4,29.91,South,180,13.2,16.3,24,0.00,,,0.00,WUHU216HW,2013-07-16 23:36:00,
2013-07-16 17:37:00,88.0,46.4,29.91,SE,135,10.3,16.3,24,0.00,,,0.00,WUHU216HW,2013-07-16 23:37:00,
2013-07-16 17:40:00,88.2,46.5,29.91,SSE,158,9.4,16.3,24,0.00,,,0.00,WUHU216HW,2013-07-16 23:40:00,
2013-07-16 17:41:00,88.2,46.5,29.90,SSE,158,9.4,16.3,24,0.00,,,0.00,WUHU216HW,2013-07-16 23:41:00,
2013-07-16 17:42:00,88.2,46.5,29.90,SSE,158,11.6,16.3,24,0.00,,,0.00,WUHU216HW,2013-07-16 23:42:00,
2013-07-16 17:45:00,88.2,47.5,29.90,SE,135,10.7,15.4,25,0.00,,,0.00,WUHU216HW,2013-07-16 23:45:00,
2013-07-16 17:46:00,88.2,46.5,29.90,South,180,10.7,12.1,24,0.00,,,0.00,WUHU216HW,2013-07-16 23:46:00,
2013-07-16 17:47:00,88.2,46.5,29.90,SSE,158,11.6,12.1,24,0.00,,,0.00,WUHU216HW,2013-07-16 23:47:00,
2013-07-16 17:50:00,88.2,47.5,29.90,SE,135,10.7,11.6,25,0.00,,,0.00,WUHU216HW,2013-07-16 23:50:00,
2013-07-16 17:51:00,88.2,46.5,29.90,SE,135,10.5,11.6,24,0.00,,,0.00,WUHU216HW,2013-07-16 23:51:00,
2013-07-16 17:52:00,88.2,46.5,29.90,SE,135,8.9,11.6,24,0.00,,,0.00,WUHU216HW,2013-07-16 23:52:00,
2013-07-16 17:53:00,88.2,46.5,29.90,SE,135,10.7,11.6,24,0.00,,,0.00,WUHU216HW,2013-07-16 23:53:00,
2013-07-16 17:56:00,88.2,46.5,29.90,ESE,113,8.9,11.6,24,0.00,,,0.00,WUHU216HW,2013-07-16 23:56:00,
2013-07-16 17:57:00,88.2,46.5,29.90,SE,135,7.4,11.6,24,0.00,,,0.00,WUHU216HW,2013-07-16 23:57:00,
2013-07-16 17:58:00,88.4,47.7,29.90,South,180,9.4,11.2,25,0.00,,,0.00,WUHU216HW,2013-07-16 23:58:00,
2013-07-16 18:01:00,88.4,46.6,29.90,South,180,8.7,11.9,24,0.00,,,0.00,WUHU216HW,2013-07-17 00:01:00,
2013-07-16 18:02:00,88.4,47.7,29.90,SSW,203,8.5,12.1,25,0.00,,,0.00,WUHU216HW,2013-07-17 00:02:00,
2013-07-16 18:03:00,88.4,46.6,29.90,SSW,203,11.9,12.1,24,0.00,,,0.00,WUHU216HW,2013-07-17 00:03:00,
2013-07-16 18:06:00,88.4,47.7,29.90,South,180,9.6,12.1,25,0.00,,,0.00,WUHU216HW,2013-07-17 00:06:00,
2013-07-16 18:07:00,88.4,47.7,29.90,SSE,158,9.4,12.1,25,0.00,,,0.00,WUHU216HW,2013-07-17 00:07:00,
2013-07-16 18:08:00,88.4,47.7,29.90,SE,135,9.2,12.1,25,0.00,,,0.00,WUHU216HW,2013-07-17 00:08:00,
2013-07-16 18:09:00,88.6,47.9,29.90,SSE,158,8.7,12.1,25,0.00,,,0.00,WUHU216HW,2013-07-17 00:09:00,
2013-07-16 18:11:00,88.7,48.0,29.90,SSE,158,10.1,12.1,25,0.00,,,0.00,WUHU216HW,2013-07-17 00:11:00,
2013-07-16 18:12:00,88.9,48.2,29.90,SE,135,11.9,14.1,25,0.00,,,0.00,WUHU216HW,2013-07-17 00:12:00,
2013-07-16 18:13:00,88.7,48.0,29.90,SE,135,7.8,14.1,25,0.00,,,0.00,WUHU216HW,2013-07-17 00:13:00,
2013-07-16 18:14:00,88.6,47.9,29.90,SE,135,13.9,14.1,25,0.00,,,0.00,WUHU216HW,2013-07-17 00:14:00,
2013-07-16 18:16:00,88.6,47.9,29.90,South,180,9.2,14.3,25,0.00,,,0.00,WUHU216HW,2013-07-17 00:16:00,
2013-07-16 18:17:00,88.6,47.9,29.90,SE,135,12.1,14.3,25,0.00,,,0.00,WUHU216HW,2013-07-17 00:17:00,
2013-07-16 18:18:00,88.4,47.7,29.90,SSE,158,10.1,14.3,25,0.00,,,0.00,WUHU216HW,2013-07-17 00:18:00,
2013-07-16 18:19:00,88.2,47.5,29.90,SE,135,7.2,14.3,25,0.00,,,0.00,WUHU216HW,2013-07-17 00:19:00,
2013-07-16 18:21:00,88.2,47.5,29.90,SE,135,11.4,14.3,25,0.00,,,0.00,WUHU216HW,2013-07-17 00:21:00,
2013-07-16 18:22:00,88.0,47.4,29.90,SSE,158,13.9,15.0,25,0.00,,,0.00,WUHU216HW,2013-07-17 00:22:00,
2013-07-16 18:23:00,88.0,48.5,29.90,South,180,12.3,15.0,26,0.00,,,0.00,WUHU216HW,2013-07-17 00:23:00,
2013-07-16 18:24:00,87.8,48.3,29.90,SE,135,12.5,15.0,26,0.00,,,0.00,WUHU216HW,2013-07-17 00:24:00,
2013-07-16 18:26:00,87.8,48.3,29.90,SE,135,12.1,15.0,26,0.00,,,0.00,WUHU216HW,2013-07-17 00:26:00,
2013-07-16 18:27:00,87.7,48.2,29.90,SE,135,10.7,15.0,26,0.00,,,0.00,WUHU216HW,2013-07-17 00:27:00,
2013-07-16 18:28:00,87.7,48.2,29.90,SE,135,16.1,16.1,26,0.00,,,0.00,WUHU216HW,2013-07-17 00:28:00,
2013-07-16 18:30:00,86.9,47.5,29.90,SE,135,12.1,16.1,26,0.00,,,0.00,WUHU216HW,2013-07-17 00:30:00,
2013-07-16 18:31:00,86.6,47.3,29.90,SE,135,12.1,16.1,26,0.00,,,0.00,WUHU216HW,2013-07-17 00:31:00,
2013-07-16 18:32:00,86.6,47.3,29.90,SSE,158,12.1,16.1,26,0.00,,,0.00,WUHU216HW,2013-07-17 00:32:00,
2013-07-16 18:33:00,86.4,49.2,29.90,SSE,158,14.3,16.1,28,0.00,,,0.00,WUHU216HW,2013-07-17 00:33:00,
2013-07-16 18:35:00,86.2,49.2,29.90,SSE,158,11.0,16.1,28,0.00,,,0.00,WUHU216HW,2013-07-17 00:35:00,
2013-07-16 18:36:00,86.4,49.2,29.90,SSE,158,11.9,16.1,28,0.00,,,0.00,WUHU216HW,2013-07-17 00:36:00,
2013-07-16 18:37:00,86.4,49.2,29.90,SSE,158,11.9,16.1,28,0.00,,,0.00,WUHU216HW,2013-07-17 00:37:00,
2013-07-16 18:38:00,86.6,49.4,29.90,SE,135,7.6,14.8,28,0.00,,,0.00,WUHU216HW,2013-07-17 00:38:00,
2013-07-16 18:40:00,86.8,49.6,29.90,SSE,158,13.6,14.5,28,0.00,,,0.00,WUHU216HW,2013-07-17 00:40:00,
2013-07-16 18:41:00,86.8,47.4,29.90,South,180,12.8,14.3,26,0.00,,,0.00,WUHU216HW,2013-07-17 00:41:00,
2013-07-16 18:42:00,86.8,49.6,29.90,South,180,9.8,14.3,28,0.00,,,0.00,WUHU216HW,2013-07-17 00:42:00,
2013-07-16 18:43:00,86.6,49.4,29.90,SSE,158,15.4,15.9,28,0.00,,,0.00,WUHU216HW,2013-07-17 00:43:00,
2013-07-16 18:44:00,86.8,48.5,29.90,ESE,113,14.3,15.9,27,0.00,,,0.00,WUHU216HW,2013-07-17 00:44:00,
2013-07-16 18:45:00,86.4,49.2,29.90,SSE,158,13.6,15.9,28,0.00,,,0.00,WUHU216HW,2013-07-17 00:45:00,
2013-07-16 18:46:00,86.0,49.0,29.90,SE,135,14.3,15.9,28,0.00,,,0.00,WUHU216HW,2013-07-17 00:46:00,
2013-07-16 18:48:00,85.9,48.8,29.90,SSE,158,7.6,15.9,28,0.00,,,0.00,WUHU216HW,2013-07-17 00:48:00,
2013-07-16 18:49:00,85.5,48.5,29.90,South,180,7.6,15.9,28,0.00,,,0.00,WUHU216HW,2013-07-17 00:49:00,
2013-07-16 18:50:00,85.1,49.2,29.90,SSE,158,10.7,15.9,29,0.00,,,0.00,WUHU216HW,2013-07-17 00:50:00,
2013-07-16 18:52:00,84.8,49.0,29.90,SSE,158,8.1,15.9,29,0.00,,,0.00,WUHU216HW,2013-07-17 00:52:00,
2013-07-16 18:53:00,84.8,49.0,29.90,SSE,158,8.1,15.9,29,0.00,,,0.00,WUHU216HW,2013-07-17 00:53:00,
2013-07-16 18:54:00,84.6,48.8,29.91,SSE,158,9.2,15.7,29,0.00,,,0.00,WUHU216HW,2013-07-17 00:54:00,
2013-07-16 18:56:00,84.2,48.4,29.91,SE,135,9.2,15.7,29,0.00,,,0.00,WUHU216HW,2013-07-17 00:56:00,
2013-07-16 18:58:00,83.7,48.0,29.91,SSE,158,11.4,15.7,29,0.00,,,0.00,WUHU216HW,2013-07-17 00:58:00,
2013-07-16 18:59:00,83.7,48.0,29.91,SSE,158,12.3,15.7,29,0.00,,,0.00,WUHU216HW,2013-07-17 00:59:00,
2013-07-16 19:01:00,83.2,47.5,29.91,SSE,158,11.0,15.7,29,0.00,,,0.00,WUHU216HW,2013-07-17 01:01:00,
2013-07-16 19:03:00,82.8,48.3,29.91,SSE,158,11.4,15.7,30,0.00,,,0.00,WUHU216HW,2013-07-17 01:03:00,
2013-07-16 19:04:00,82.4,46.8,29.91,SSE,158,13.0,17.0,29,0.00,,,0.00,WUHU216HW,2013-07-17 01:04:00,
2013-07-16 19:06:00,82.3,47.7,29.91,SSE,158,15.4,17.0,30,0.00,,,0.00,WUHU216HW,2013-07-17 01:06:00,
2013-07-16 19:08:00,81.9,47.4,29.91,SE,135,11.4,17.0,30,0.00,,,0.00,WUHU216HW,2013-07-17 01:08:00,
2013-07-16 19:09:00,81.7,48.1,29.91,SSE,158,12.8,17.0,31,0.00,,,0.00,WUHU216HW,2013-07-17 01:09:00,
2013-07-16 19:11:00,81.4,47.0,29.91,SSW,203,10.5,17.0,30,0.00,,,0.00,WUHU216HW,2013-07-17 01:11:00,
2013-07-16 19:13:00,81.0,47.5,29.91,SSE,158,12.1,17.0,31,0.00,,,0.00,WUHU216HW,2013-07-17 01:13:00,
2013-07-16 19:14:00,81.0,47.5,29.92,SSW,203,11.6,17.0,31,0.00,,,0.00,WUHU216HW,2013-07-17 01:14:00,
2013-07-16 19:16:00,80.6,47.3,29.92,South,180,13.2,15.2,31,0.00,,,0.00,WUHU216HW,2013-07-17 01:16:00,
2013-07-16 19:18:00,80.3,46.9,29.92,SSE,158,12.8,15.2,31,0.00,,,0.00,WUHU216HW,2013-07-17 01:18:00,
2013-07-16 19:19:00,80.1,46.7,29.92,SSE,158,9.2,15.2,31,0.00,,,0.00,WUHU216HW,2013-07-17 01:19:00,
2013-07-16 19:20:00,79.9,46.5,29.92,SSE,158,12.3,15.2,31,0.00,,,0.00,WUHU216HW,2013-07-17 01:20:00,
2013-07-16 19:21:00,79.7,47.2,29.92,South,180,9.8,15.2,32,0.00,,,0.00,WUHU216HW,2013-07-17 01:21:00,
2013-07-16 19:23:00,79.6,47.0,29.92,South,180,8.5,15.0,32,0.00,,,0.00,WUHU216HW,2013-07-17 01:23:00,
2013-07-16 19:24:00,79.4,46.9,29.92,SSE,158,10.7,15.0,32,0.00,,,0.00,WUHU216HW,2013-07-17 01:24:00,
2013-07-16 19:25:00,79.4,46.9,29.92,SSE,158,10.7,15.0,32,0.00,,,0.00,WUHU216HW,2013-07-17 01:25:00,
2013-07-16 19:26:00,79.2,46.7,29.92,South,180,11.4,15.0,32,0.00,,,0.00,WUHU216HW,2013-07-17 01:26:00,
2013-07-16 19:28:00,79.2,46.7,29.92,South,180,11.6,15.0,32,0.00,,,0.00,WUHU216HW,2013-07-17 01:28:00,
2013-07-16 19:29:00,79.0,46.5,29.92,South,180,12.8,15.0,32,0.00,,,0.00,WUHU216HW,2013-07-17 01:29:00,
2013-07-16 19:30:00,79.0,46.5,29.92,South,180,9.6,15.0,32,0.00,,,0.00,WUHU216HW,2013-07-17 01:30:00,
2013-07-16 19:31:00,78.8,47.2,29.92,SW,225,7.6,12.8,33,0.00,,,0.00,WUHU216HW,2013-07-17 01:31:00,
2013-07-16 19:33:00,78.8,47.2,29.92,SSW,203,7.6,12.8,33,0.00,,,0.00,WUHU216HW,2013-07-17 01:33:00,
2013-07-16 19:34:00,78.8,47.2,29.92,SSW,203,7.6,12.8,33,0.00,,,0.00,WUHU216HW,2013-07-17 01:34:00,
2013-07-16 19:35:00,78.8,47.2,29.92,SSW,203,9.6,12.8,33,0.00,,,0.00,WUHU216HW,2013-07-17 01:35:00,
2013-07-16 19:36:00,78.7,47.0,29.92,SSW,203,8.5,12.8,33,0.00,,,0.00,WUHU216HW,2013-07-17 01:36:00,
2013-07-16 19:39:00,78.7,47.0,29.92,SW,225,12.8,12.8,33,0.00,,,0.00,WUHU216HW,2013-07-17 01:39:00,
2013-07-16 19:40:00,78.5,46.8,29.92,SSW,203,12.1,13.0,33,0.00,,,0.00,WUHU216HW,2013-07-17 01:40:00,
2013-07-16 19:42:00,78.5,46.8,29.92,SSW,203,8.5,13.4,33,0.00,,,0.00,WUHU216HW,2013-07-17 01:42:00,
2013-07-16 19:44:00,78.3,46.7,29.93,South,180,10.5,13.4,33,0.00,,,0.00,WUHU216HW,2013-07-17 01:44:00,
2013-07-16 19:45:00,78.3,46.7,29.93,SSW,203,12.8,13.4,33,0.00,,,0.00,WUHU216HW,2013-07-17 01:45:00,
2013-07-16 19:47:00,78.1,46.5,29.93,South,180,8.1,13.4,33,0.00,,,0.00,WUHU216HW,2013-07-17 01:47:00,
2013-07-16 19:49:00,78.1,46.5,29.93,SSW,203,8.9,13.4,33,0.00,,,0.00,WUHU216HW,2013-07-17 01:49:00,
2013-07-16 19:50:00,78.1,46.5,29.93,SSW,203,7.2,13.2,33,0.00,,,0.00,WUHU216HW,2013-07-17 01:50:00,
2013-07-16 19:52:00,77.9,46.4,29.93,SSW,203,9.8,13.2,33,0.00,,,0.00,WUHU216HW,2013-07-17 01:52:00,
2013-07-16 19:54:00,77.9,46.4,29.93,SSW,203,9.8,13.2,33,0.00,,,0.00,WUHU216HW,2013-07-17 01:54:00,
2013-07-16 19:55:00,77.8,46.3,29.93,South,180,9.6,13.2,33,0.00,,,0.00,WUHU216HW,2013-07-17 01:55:00,
2013-07-16 19:57:00,77.8,47.0,29.93,SSW,203,9.8,11.0,34,0.00,,,0.00,WUHU216HW,2013-07-17 01:57:00,
2013-07-16 19:59:00,77.6,46.9,29.93,South,180,10.3,10.3,34,0.00,,,0.00,WUHU216HW,2013-07-17 01:59:00,
2013-07-16 20:00:00,77.6,46.9,29.93,SSW,203,9.2,10.3,34,0.00,,,0.00,WUHU216HW,2013-07-17 02:00:00,
2013-07-16 20:02:00,77.4,46.7,29.93,SSW,203,9.6,10.3,34,0.00,,,0.00,WUHU216HW,2013-07-17 02:02:00,
2013-07-16 20:04:00,77.4,46.7,29.93,SSW,203,11.2,11.2,34,0.00,,,0.00,WUHU216HW,2013-07-17 02:04:00,
2013-07-16 20:05:00,77.4,46.7,29.93,SSW,203,9.8,11.2,34,0.00,,,0.00,WUHU216HW,2013-07-17 02:05:00,
2013-07-16 20:06:00,77.4,46.7,29.93,SSW,203,13.2,13.2,34,0.00,,,0.00,WUHU216HW,2013-07-17 02:06:00,
2013-07-16 20:07:00,77.2,46.5,29.93,South,180,12.1,13.2,34,0.00,,,0.00,WUHU216HW,2013-07-17 02:07:00,
2013-07-16 20:09:00,77.2,46.5,29.93,SW,225,6.7,13.2,34,0.00,,,0.00,WUHU216HW,2013-07-17 02:09:00,
2013-07-16 20:11:00,77.0,46.5,29.93,SSW,203,10.3,13.2,34,0.00,,,0.00,WUHU216HW,2013-07-17 02:11:00,
2013-07-16 20:12:00,76.9,46.3,29.93,SW,225,9.2,13.2,34,0.00,,,0.00,WUHU216HW,2013-07-17 02:12:00,
2013-07-16 20:14:00,76.7,46.1,29.93,SSW,203,8.3,13.2,34,0.00,,,0.00,WUHU216HW,2013-07-17 02:14:00,
2013-07-16 20:16:00,76.7,46.1,29.93,South,180,9.4,12.8,34,0.00,,,0.00,WUHU216HW,2013-07-17 02:16:00,
2013-07-16 20:18:00,76.7,46.8,29.93,SSE,158,10.5,12.8,35,0.00,,,0.00,WUHU216HW,2013-07-17 02:18:00,
2013-07-16 20:20:00,76.5,45.9,29.93,SSW,203,8.5,11.2,34,0.00,,,0.00,WUHU216HW,2013-07-17 02:20:00,
2013-07-16 20:21:00,76.3,46.5,29.93,SW,225,8.7,11.2,35,0.00,,,0.00,WUHU216HW,2013-07-17 02:21:00,
2013-07-16 20:22:00,76.3,46.5,29.93,SW,225,8.7,11.2,35,0.00,,,0.00,WUHU216HW,2013-07-17 02:22:00,
2013-07-16 20:24:00,76.3,46.5,29.93,SSW,203,7.8,11.2,35,0.00,,,0.00,WUHU216HW,2013-07-17 02:24:00,
2013-07-16 20:25:00,76.3,46.5,29.93,South,180,9.2,11.2,35,0.00,,,0.00,WUHU216HW,2013-07-17 02:25:00,
2013-07-16 20:26:00,76.1,46.4,29.93,SSW,203,9.8,11.2,35,0.00,,,0.00,WUHU216HW,2013-07-17 02:26:00,
2013-07-16 20:27:00,76.1,46.4,29.93,South,180,8.9,11.2,35,0.00,,,0.00,WUHU216HW,2013-07-17 02:27:00,
2013-07-16 20:29:00,76.0,46.2,29.93,South,180,9.2,11.2,35,0.00,,,0.00,WUHU216HW,2013-07-17 02:29:00,
2013-07-16 20:30:00,76.0,46.2,29.93,SSW,203,9.8,11.2,35,0.00,,,0.00,WUHU216HW,2013-07-17 02:30:00,
2013-07-16 20:32:00,75.8,46.0,29.93,SSE,158,7.6,11.2,35,0.00,,,0.00,WUHU216HW,2013-07-17 02:32:00,
2013-07-16 20:34:00,75.6,46.6,29.93,SSE,158,9.8,11.2,36,0.00,,,0.00,WUHU216HW,2013-07-17 02:34:00,
2013-07-16 20:35:00,75.6,46.6,29.93,South,180,9.2,11.4,36,0.00,,,0.00,WUHU216HW,2013-07-17 02:35:00,
2013-07-16 20:37:00,75.6,46.6,29.93,South,180,8.5,11.4,36,0.00,,,0.00,WUHU216HW,2013-07-17 02:37:00,
2013-07-16 20:39:00,75.2,47.1,29.93,SSE,158,9.8,11.4,37,0.00,,,0.00,WUHU216HW,2013-07-17 02:39:00,
2013-07-16 20:40:00,75.2,47.1,29.93,SSW,203,9.2,11.4,37,0.00,,,0.00,WUHU216HW,2013-07-17 02:40:00,
2013-07-16 20:41:00,75.2,47.1,29.93,SSW,203,8.5,11.4,37,0.00,,,0.00,WUHU216HW,2013-07-17 02:41:00,
2013-07-16 20:42:00,75.2,47.1,29.93,South,180,12.3,12.3,37,0.00,,,0.00,WUHU216HW,2013-07-17 02:42:00,
2013-07-16 20:44:00,75.1,46.9,29.93,SSE,158,9.4,12.3,37,0.00,,,0.00,WUHU216HW,2013-07-17 02:44:00,
2013-07-16 20:45:00,74.9,46.7,29.93,SE,135,8.1,12.3,37,0.00,,,0.00,WUHU216HW,2013-07-17 02:45:00,
2013-07-16 20:46:00,74.9,46.7,29.93,South,180,9.6,12.3,37,0.00,,,0.00,WUHU216HW,2013-07-17 02:46:00,
2013-07-16 20:47:00,74.9,46.7,29.93,SSW,203,7.8,12.3,37,0.00,,,0.00,WUHU216HW,2013-07-17 02:47:00,
2013-07-16 20:48:00,74.9,46.7,29.93,SSW,203,10.7,12.3,37,0.00,,,0.00,WUHU216HW,2013-07-17 02:48:00,
2013-07-16 20:49:00,74.7,47.4,29.93,South,180,10.1,12.3,38,0.00,,,0.00,WUHU216HW,2013-07-17 02:49:00,
2013-07-16 20:51:00,74.7,47.4,29.93,South,180,10.5,12.3,38,0.00,,,0.00,WUHU216HW,2013-07-17 02:51:00,
2013-07-16 20:52:00,74.5,47.2,29.93,SSW,203,9.2,12.3,38,0.00,,,0.00,WUHU216HW,2013-07-17 02:52:00,
2013-07-16 20:53:00,74.5,47.2,29.93,SSW,203,8.5,11.0,38,0.00,,,0.00,WUHU216HW,2013-07-17 02:53:00,
2013-07-16 20:54:00,74.5,47.2,29.93,SSW,203,7.8,11.0,38,0.00,,,0.00,WUHU216HW,2013-07-17 02:54:00,
2013-07-16 20:56:00,74.5,47.2,29.93,SSE,158,7.4,11.0,38,0.00,,,0.00,WUHU216HW,2013-07-17 02:56:00,
2013-07-16 20:57:00,74.5,47.2,29.93,South,180,8.5,11.2,38,0.00,,,0.00,WUHU216HW,2013-07-17 02:57:00,
2013-07-16 20:58:00,74.3,47.0,29.93,South,180,8.7,11.2,38,0.00,,,0.00,WUHU216HW,2013-07-17 02:58:00,
2013-07-16 20:59:00,74.3,47.0,29.93,SSW,203,11.0,12.3,38,0.00,,,0.00,WUHU216HW,2013-07-17 02:59:00,
2013-07-16 21:01:00,74.3,47.0,29.93,SSW,203,11.2,12.3,38,0.00,,,0.00,WUHU216HW,2013-07-17 03:01:00,
2013-07-16 21:02:00,74.2,46.8,29.93,WSW,248,8.7,12.3,38,0.00,,,0.00,WUHU216HW,2013-07-17 03:02:00,
2013-07-16 21:03:00,74.2,46.8,29.93,SW,225,12.1,12.3,38,0.00,,,0.00,WUHU216HW,2013-07-17 03:03:00,
2013-07-16 21:05:00,74.2,47.6,29.94,South,180,8.5,12.3,39,0.00,,,0.00,WUHU216HW,2013-07-17 03:05:00,
2013-07-16 21:06:00,74.2,47.6,29.93,SSW,203,8.3,12.3,39,0.00,,,0.00,WUHU216HW,2013-07-17 03:06:00,
2013-07-16 21:07:00,74.2,47.6,29.93,SSW,203,4.5,12.3,39,0.00,,,0.00,WUHU216HW,2013-07-17 03:07:00,
2013-07-16 21:08:00,74.0,47.4,29.93,SW,225,7.8,12.3,39,0.00,,,0.00,WUHU216HW,2013-07-17 03:08:00,
2013-07-16 21:10:00,74.0,47.4,29.93,SW,225,4.3,12.1,39,0.00,,,0.00,WUHU216HW,2013-07-17 03:10:00,
2013-07-16 21:12:00,74.0,47.4,29.93,SW,225,7.6,12.1,39,0.00,,,0.00,WUHU216HW,2013-07-17 03:12:00,
2013-07-16 21:13:00,73.8,47.3,29.93,SSE,158,6.9,12.1,39,0.00,,,0.00,WUHU216HW,2013-07-17 03:13:00,
2013-07-16 21:15:00,73.8,47.3,29.93,South,180,8.5,9.2,39,0.00,,,0.00,WUHU216HW,2013-07-17 03:15:00,
2013-07-16 21:17:00,73.8,47.3,29.93,SW,225,7.6,9.2,39,0.00,,,0.00,WUHU216HW,2013-07-17 03:17:00,
2013-07-16 21:18:00,73.8,47.3,29.93,SW,225,6.3,9.2,39,0.00,,,0.00,WUHU216HW,2013-07-17 03:18:00,
2013-07-16 21:19:00,73.6,47.1,29.93,South,180,6.5,9.2,39,0.00,,,0.00,WUHU216HW,2013-07-17 03:19:00,
2013-07-16 21:20:00,73.6,47.1,29.93,SSW,203,6.9,9.2,39,0.00,,,0.00,WUHU216HW,2013-07-17 03:20:00,
2013-07-16 21:22:00,73.6,47.1,29.93,SSW,203,6.7,8.7,39,0.00,,,0.00,WUHU216HW,2013-07-17 03:22:00,
2013-07-16 21:23:00,73.4,47.0,29.93,SSW,203,6.0,8.7,39,0.00,,,0.00,WUHU216HW,2013-07-17 03:23:00,
2013-07-16 21:24:00,73.4,47.0,29.93,SW,225,6.3,8.7,39,0.00,,,0.00,WUHU216HW,2013-07-17 03:24:00,
2013-07-16 21:25:00,73.4,47.0,29.93,SSW,203,5.8,8.7,39,0.00,,,0.00,WUHU216HW,2013-07-17 03:25:00,
2013-07-16 21:27:00,73.4,47.0,29.93,SW,225,7.6,8.5,39,0.00,,,0.00,WUHU216HW,2013-07-17 03:27:00,
2013-07-16 21:28:00,73.3,46.8,29.93,SSW,203,5.1,7.8,39,0.00,,,0.00,WUHU216HW,2013-07-17 03:28:00,
2013-07-16 21:29:00,73.3,46.8,29.93,SSW,203,4.7,7.8,39,0.00,,,0.00,WUHU216HW,2013-07-17 03:29:00,
2013-07-16 21:30:00,73.3,47.5,29.93,SSW,203,5.4,7.8,40,0.00,,,0.00,WUHU216HW,2013-07-17 03:30:00,
2013-07-16 21:32:00,73.3,47.5,29.93,SSE,158,6.3,7.8,40,0.00,,,0.00,WUHU216HW,2013-07-17 03:32:00,
2013-07-16 21:33:00,73.1,47.3,29.93,SSW,203,3.8,7.8,40,0.00,,,0.00,WUHU216HW,2013-07-17 03:33:00,
2013-07-16 21:34:00,73.1,47.3,29.93,South,180,4.5,7.8,40,0.00,,,0.00,WUHU216HW,2013-07-17 03:34:00,
2013-07-16 21:35:00,73.1,47.3,29.93,SSW,203,4.5,7.8,40,0.00,,,0.00,WUHU216HW,2013-07-17 03:35:00,
2013-07-16 21:37:00,73.1,47.3,29.93,SSW,203,6.5,7.6,40,0.00,,,0.00,WUHU216HW,2013-07-17 03:37:00,
2013-07-16 21:38:00,73.1,47.3,29.93,SSW,203,8.7,8.7,40,0.00,,,0.00,WUHU216HW,2013-07-17 03:38:00,
2013-07-16 21:39:00,73.1,48.0,29.94,SW,225,8.3,8.7,41,0.00,,,0.00,WUHU216HW,2013-07-17 03:39:00,
2013-07-16 21:41:00,72.9,47.8,29.94,SW,225,10.7,10.7,41,0.00,,,0.00,WUHU216HW,2013-07-17 03:41:00,
2013-07-16 21:42:00,72.9,47.8,29.94,SW,225,5.6,10.7,41,0.00,,,0.00,WUHU216HW,2013-07-17 03:42:00,
2013-07-16 21:43:00,72.9,47.8,29.94,WSW,248,6.9,10.7,41,0.00,,,0.00,WUHU216HW,2013-07-17 03:43:00,
2013-07-16 21:44:00,72.9,47.8,29.94,WSW,248,7.4,10.7,41,0.00,,,0.00,WUHU216HW,2013-07-17 03:44:00,
2013-07-16 21:46:00,72.7,47.6,29.94,SW,225,6.3,10.7,41,0.00,,,0.00,WUHU216HW,2013-07-17 03:46:00,
2013-07-16 21:47:00,72.7,47.6,29.94,SW,225,4.3,10.7,41,0.00,,,0.00,WUHU216HW,2013-07-17 03:47:00,
2013-07-16 21:48:00,72.7,47.6,29.94,WSW,248,7.8,10.7,41,0.00,,,0.00,WUHU216HW,2013-07-17 03:48:00,
2013-07-16 21:49:00,72.7,47.6,29.94,SW,225,6.9,10.7,41,0.00,,,0.00,WUHU216HW,2013-07-17 03:49:00,
2013-07-16 21:51:00,72.7,47.6,29.95,WSW,248,6.9,9.2,41,0.00,,,0.00,WUHU216HW,2013-07-17 03:51:00,
2013-07-16 21:52:00,72.7,47.6,29.95,WSW,248,3.4,7.8,41,0.00,,,0.00,WUHU216HW,2013-07-17 03:52:00,
2013-07-16 21:53:00,72.5,48.1,29.95,West,270,5.4,7.8,42,0.00,,,0.00,WUHU216HW,2013-07-17 03:53:00,
2013-07-16 21:54:00,72.5,47.5,29.95,NNE,23,0.9,7.8,41,0.00,,,0.00,WUHU216HW,2013-07-17 03:54:00,
2013-07-16 21:55:00,72.5,48.1,29.95,NNE,23,1.8,7.8,42,0.00,,,0.00,WUHU216HW,2013-07-17 03:55:00,
2013-07-16 21:56:00,72.5,48.1,29.95,West,270,4.5,7.8,42,0.00,,,0.00,WUHU216HW,2013-07-17 03:56:00,
2013-07-16 21:57:00,72.4,47.9,29.95,West,270,5.4,7.8,42,0.00,,,0.00,WUHU216HW,2013-07-17 03:57:00,
2013-07-16 21:58:00,72.4,47.9,29.95,WSW,248,4.5,7.8,42,0.00,,,0.00,WUHU216HW,2013-07-17 03:58:00,
2013-07-16 21:59:00,72.4,47.9,29.95,SW,225,5.4,7.2,42,0.00,,,0.00,WUHU216HW,2013-07-17 03:59:00,
2013-07-16 22:00:00,72.2,47.8,29.95,WSW,248,4.5,7.2,42,0.00,,,0.00,WUHU216HW,2013-07-17 04:00:00,
2013-07-16 22:01:00,72.2,47.8,29.95,WSW,248,5.1,7.2,42,0.00,,,0.00,WUHU216HW,2013-07-17 04:01:00,
2013-07-16 22:02:00,72.2,47.8,29.95,North,0,1.8,6.3,42,0.00,,,0.00,WUHU216HW,2013-07-17 04:02:00,
2013-07-16 22:06:00,72.2,47.8,29.95,NNE,23,1.6,6.9,42,0.00,,,0.00,WUHU216HW,2013-07-17 04:06:00,
2013-07-16 22:07:00,72.2,47.8,29.95,SSE,158,3.4,6.9,42,0.00,,,0.00,WUHU216HW,2013-07-17 04:07:00,
2013-07-16 22:11:00,72.0,48.2,29.96,NE,45,1.3,6.9,43,0.00,,,0.00,WUHU216HW,2013-07-17 04:11:00,
2013-07-16 22:12:00,72.0,48.8,29.96,North,0,2.0,6.9,44,0.00,,,0.00,WUHU216HW,2013-07-17 04:12:00,
2013-07-16 22:16:00,71.6,48.4,29.96,West,270,2.0,4.3,44,0.00,,,0.00,WUHU216HW,2013-07-17 04:16:00,
2013-07-16 22:17:00,71.6,48.4,29.96,SSW,203,1.1,4.3,44,0.00,,,0.00,WUHU216HW,2013-07-17 04:17:00,
2013-07-16 22:21:00,71.1,48.6,29.96,NW,315,2.7,4.0,45,0.00,,,0.00,WUHU216HW,2013-07-17 04:21:00,
2013-07-16 22:22:00,71.1,48.0,29.96,West,270,2.5,4.0,44,0.00,,,0.00,WUHU216HW,2013-07-17 04:22:00,
2013-07-16 22:26:00,70.7,48.2,29.96,SSW,203,5.4,5.4,45,0.00,,,0.00,WUHU216HW,2013-07-17 04:26:00,
2013-07-16 22:27:00,70.7,48.2,29.96,SSW,203,5.4,5.4,45,0.00,,,0.00,WUHU216HW,2013-07-17 04:27:00,
2013-07-16 22:28:00,70.6,48.1,29.96,South,180,4.5,5.4,45,0.00,,,0.00,WUHU216HW,2013-07-17 04:28:00,
2013-07-16 22:31:00,70.7,48.9,29.96,SSE,158,6.0,6.9,46,0.00,,,0.00,WUHU216HW,2013-07-17 04:31:00,
2013-07-16 22:32:00,70.7,48.2,29.96,South,180,3.6,6.9,45,0.00,,,0.00,WUHU216HW,2013-07-17 04:32:00,
2013-07-16 22:33:00,70.7,48.2,29.96,SSW,203,3.1,6.9,45,0.00,,,0.00,WUHU216HW,2013-07-17 04:33:00,
2013-07-16 22:37:00,70.9,48.4,29.96,SW,225,6.0,6.9,45,0.00,,,0.00,WUHU216HW,2013-07-17 04:37:00,
2013-07-16 22:38:00,70.9,49.0,29.96,SW,225,8.7,8.7,46,0.00,,,0.00,WUHU216HW,2013-07-17 04:38:00,
2013-07-16 22:42:00,70.9,49.0,29.96,WSW,248,4.0,8.7,46,0.00,,,0.00,WUHU216HW,2013-07-17 04:42:00,
2013-07-16 22:44:00,70.9,49.0,29.96,WSW,248,2.5,8.7,46,0.00,,,0.00,WUHU216HW,2013-07-17 04:44:00,
2013-07-16 22:47:00,70.9,49.0,29.96,NW,315,3.6,8.7,46,0.00,,,0.00,WUHU216HW,2013-07-17 04:47:00,
2013-07-16 22:48:00,70.7,48.9,29.96,NW,315,3.4,6.9,46,0.00,,,0.00,WUHU216HW,2013-07-17 04:48:00,
2013-07-16 22:49:00,70.6,48.7,29.96,WNW,293,3.4,6.9,46,0.00,,,0.00,WUHU216HW,2013-07-17 04:49:00,
2013-07-16 22:52:00,70.2,49.0,29.96,NNW,338,2.9,5.4,47,0.00,,,0.00,WUHU216HW,2013-07-17 04:52:00,
2013-07-16 22:53:00,70.2,49.0,29.96,NW,315,3.4,5.4,47,0.00,,,0.00,WUHU216HW,2013-07-17 04:53:00,
2013-07-16 22:54:00,70.0,48.8,29.97,North,0,2.5,5.4,47,0.00,,,0.00,WUHU216HW,2013-07-17 04:54:00,
2013-07-16 22:55:00,70.0,49.4,29.97,North,0,4.0,5.4,48,0.00,,,0.00,WUHU216HW,2013-07-17 04:55:00,
2013-07-16 22:57:00,69.8,49.2,29.97,North,0,2.5,5.1,48,0.00,,,0.00,WUHU216HW,2013-07-17 04:57:00,
2013-07-16 22:59:00,69.7,49.1,29.97,NNW,338,5.6,5.6,48,0.00,,,0.00,WUHU216HW,2013-07-17 04:59:00,
2013-07-16 23:00:00,69.5,48.9,29.97,NNW,338,5.1,5.6,48,0.00,,,0.00,WUHU216HW,2013-07-17 05:00:00,
2013-07-16 23:02:00,69.5,49.5,29.97,NW,315,3.6,5.6,49,0.00,,,0.00,WUHU216HW,2013-07-17 05:02:00,
2013-07-16 23:04:00,69.3,48.2,29.97,NNW,338,2.7,5.6,47,0.00,,,0.00,WUHU216HW,2013-07-17 05:04:00,
2013-07-16 23:05:00,69.3,48.7,29.97,NNW,338,3.4,5.6,48,0.00,,,0.00,WUHU216HW,2013-07-17 05:05:00,
2013-07-16 23:07:00,69.1,48.6,29.97,NNW,338,1.8,5.6,48,0.00,,,0.00,WUHU216HW,2013-07-17 05:07:00,
2013-07-16 23:08:00,69.1,48.6,29.97,NNW,338,2.7,5.6,48,0.00,,,0.00,WUHU216HW,2013-07-17 05:08:00,
2013-07-16 23:09:00,68.9,48.4,29.97,North,0,1.8,5.6,48,0.00,,,0.00,WUHU216HW,2013-07-17 05:09:00,
2013-07-16 23:10:00,68.9,49.0,29.97,North,0,2.2,5.6,49,0.00,,,0.00,WUHU216HW,2013-07-17 05:10:00,
2013-07-16 23:13:00,68.8,48.9,29.97,North,0,3.4,4.0,49,0.00,,,0.00,WUHU216HW,2013-07-17 05:13:00,
2013-07-16 23:14:00,68.8,48.9,29.97,NNE,23,4.7,4.7,49,0.00,,,0.00,WUHU216HW,2013-07-17 05:14:00,
2013-07-16 23:15:00,68.6,48.7,29.97,North,0,4.0,4.7,49,0.00,,,0.00,WUHU216HW,2013-07-17 05:15:00,
2013-07-16 23:18:00,68.6,48.7,29.97,North,0,2.7,4.7,49,0.00,,,0.00,WUHU216HW,2013-07-17 05:18:00,
2013-07-16 23:19:00,68.6,49.2,29.97,North,0,1.8,4.7,50,0.00,,,0.00,WUHU216HW,2013-07-17 05:19:00,
2013-07-16 23:20:00,68.4,49.2,29.97,North,0,1.8,4.7,50,0.00,,,0.00,WUHU216HW,2013-07-17 05:20:00,
2013-07-16 23:23:00,68.4,49.2,29.97,North,0,1.8,4.7,50,0.00,,,0.00,WUHU216HW,2013-07-17 05:23:00,
2013-07-16 23:24:00,68.4,49.2,29.97,NNW,338,1.8,4.5,50,0.00,,,0.00,WUHU216HW,2013-07-17 05:24:00,
2013-07-16 23:25:00,68.4,48.5,29.97,NNW,338,1.8,3.8,49,0.00,,,0.00,WUHU216HW,2013-07-17 05:25:00,
2013-07-16 23:28:00,68.4,48.5,29.97,NNW,338,0.7,2.7,49,0.00,,,0.00,WUHU216HW,2013-07-17 05:28:00,
2013-07-16 23:29:00,68.4,48.5,29.97,NNE,23,1.1,2.5,49,0.00,,,0.00,WUHU216HW,2013-07-17 05:29:00,
2013-07-16 23:31:00,68.4,48.5,29.97,NNE,23,1.1,2.5,49,0.00,,,0.00,WUHU216HW,2013-07-17 05:31:00,
2013-07-16 23:33:00,68.4,48.5,29.97,NNE,23,1.6,2.5,49,0.00,,,0.00,WUHU216HW,2013-07-17 05:33:00,
2013-07-16 23:34:00,68.4,48.5,29.97,NNW,338,1.3,2.2,49,0.00,,,0.00,WUHU216HW,2013-07-17 05:34:00,
2013-07-16 23:35:00,68.4,49.2,29.97,North,0,2.9,2.9,50,0.00,,,0.00,WUHU216HW,2013-07-17 05:35:00,
2013-07-16 23:36:00,68.4,49.2,29.97,NNW,338,1.8,3.4,50,0.00,,,0.00,WUHU216HW,2013-07-17 05:36:00,
2013-07-16 23:38:00,68.4,50.0,29.97,ESE,113,4.7,4.7,52,0.00,,,0.00,WUHU216HW,2013-07-17 05:38:00,
2013-07-16 23:40:00,68.4,49.6,29.97,SSE,158,2.9,4.7,51,0.00,,,0.00,WUHU216HW,2013-07-17 05:40:00,
2013-07-16 23:41:00,68.6,49.2,29.97,SE,135,1.8,4.7,50,0.00,,,0.00,WUHU216HW,2013-07-17 05:41:00,
2013-07-16 23:43:00,68.6,49.2,29.97,WSW,248,0.4,4.7,50,0.00,,,0.00,WUHU216HW,2013-07-17 05:43:00,
2013-07-16 23:45:00,68.6,49.8,29.97,NW,315,1.3,4.7,51,0.00,,,0.00,WUHU216HW,2013-07-17 05:45:00,
2013-07-16 23:46:00,68.6,49.8,29.97,NNW,338,1.1,4.7,51,0.00,,,0.00,WUHU216HW,2013-07-17 05:46:00,
2013-07-16 23:48:00,68.6,49.2,29.97,SSE,158,0.2,3.4,50,0.00,,,0.00,WUHU216HW,2013-07-17 05:48:00,
2013-07-16 23:50:00,68.4,49.6,29.97,SSE,158,3.1,3.1,51,0.00,,,0.00,WUHU216HW,2013-07-17 05:50:00,
2013-07-16 23:51:00,68.6,49.8,29.97,South,180,2.9,3.1,51,0.00,,,0.00,WUHU216HW,2013-07-17 05:51:00,
2013-07-16 23:53:00,68.4,50.0,29.97,SSW,203,2.5,3.4,52,0.00,,,0.00,WUHU216HW,2013-07-17 05:53:00,
2013-07-16 23:55:00,68.4,50.0,29.97,South,180,2.9,3.4,52,0.00,,,0.00,WUHU216HW,2013-07-17 05:55:00,
2013-07-16 23:56:00,68.4,50.0,29.97,South,180,2.7,3.4,52,0.00,,,0.00,WUHU216HW,2013-07-17 05:56:00,
2013-07-16 23:57:00,68.4,50.0,29.97,SSW,203,2.7,3.4,52,0.00,,,0.00,WUHU216HW,2013-07-17 05:57:00,
2013-07-16 23:59:00,68.4,50.0,29.97,SSW,203,1.8,3.4,52,0.00,,,0.00,WUHU216HW,2013-07-17 05:59:00,